GFSFLT1_925_thetae_000.txt.gz
Theta_e
328 328 328 327 326 326 325 327 326 325 326 326 327 327 323 320 322 326 325 325 324 326 326 326 327 326 326 324 321 320 320 320 323
329 329 326 326 326 326 325 325 325 326 326 326 326 327 324 319 321 324 326 326 320 325 325 323 323 323 323 323 320 320 319 320 320
330 329 327 327 327 327 327 326 325 324 325 326 325 326 326 321 321 322 325 324 322 326 326 324 324 323 321 321 321 320 319 319 319
330 331 330 328 327 327 328 328 327 326 325 324 325 325 325 325 319 320 322 324 323 326 325 325 324 323 322 320 322 321 319 319 318
329 329 329 329 328 328 327 328 328 326 324 324 324 324 324 324 321 318 318 322 323 325 325 325 324 324 323 322 320 321 320 320 319
326 326 326 325 326 328 327 328 327 326 323 320 319 320 323 324 322 319 316 318 322 325 326 325 325 324 323 323 322 320 320 320 320
326 325 325 324 324 324 327 327 327 326 324 322 319 317 317 319 320 320 316 314 319 323 325 325 325 325 323 323 323 322 320 320 320
326 326 326 325 324 322 324 324 324 324 323 322 321 318 317 315 316 316 317 316 319 321 323 325 326 326 325 323 322 322 322 321 321
325 325 325 324 323 322 323 323 324 324 323 322 321 318 317 316 314 310 310 313 315 318 320 323 326 327 327 326 324 322 322 321 321
323 324 324 324 324 324 323 323 323 324 323 322 321 321 319 318 318 316 310 309 310 315 319 319 323 325 327 328 326 324 322 322 322
323 324 325 325 325 325 325 325 324 324 324 323 322 321 321 320 319 319 318 317 314 313 316 321 319 321 324 327 328 327 325 324 323
325 325 326 326 326 325 325 325 325 324 324 323 323 323 322 321 321 320 320 319 319 318 316 318 321 320 321 322 326 327 327 326 326
326 326 326 326 326 325 325 324 324 323 323 322 323 323 323 323 322 321 321 321 321 321 320 318 318 319 319 321 322 324 325 326 326
326 325 326 326 325 324 324 323 322 322 321 321 322 321 321 323 323 323 323 324 324 323 323 323 322 321 320 321 322 322 323 324 325
328 328 328 328 327 327 326 324 324 323 323 322 321 322 322 322 322 322 322 323 323 323 323 323 322 323 323 322 322 323 324 323 323
328 327 326 325 326 326 326 325 323 323 323 320 322 323 324 324 324 324 323 323 324 323 324 324 323 323 323 322 321 321 322 324 324
312 312 313 314 318 321 323 325 324 324 324 322 323 325 325 325 325 325 324 324 323 321 323 322 323 323 322 322 323 321 320 322 324
310 308 307 307 307 308 309 316 321 323 324 324 323 326 327 326 326 326 325 324 324 324 324 323 322 322 321 322 323 322 322 322 323
306 305 304 304 304 305 307 307 307 312 319 321 323 324 324 325 326 325 325 325 324 323 323 324 324 324 323 323 323 324 324 324 323
303 302 302 302 302 303 305 305 305 306 310 313 316 317 318 319 321 321 320 319 320 324 324 324 323 324 324 323 324 325 325 325 324

GFSFLT1_925_thetae_003.txt.gz
Theta_e
328 329 326 325 325 327 326 326 328 327 327 328 327 327 327 323 320 322 325 326 324 326 327 327 328 329 328 327 325 321 322 320 322
330 329 328 326 328 327 326 326 326 326 327 327 326 326 326 325 320 320 324 325 325 326 325 326 325 326 325 325 325 321 321 320 321
331 331 329 328 328 327 327 327 327 327 326 325 326 325 325 325 325 320 321 323 326 325 326 326 325 324 324 323 323 322 320 320 321
332 331 329 329 329 328 327 327 327 328 327 326 326 325 324 325 325 324 319 320 324 326 326 327 326 325 324 324 322 323 322 320 320
330 329 329 329 329 329 326 326 326 327 327 326 325 323 323 324 325 324 323 319 319 326 326 327 326 326 325 325 323 322 323 322 321
328 328 326 325 325 328 327 327 326 326 325 324 323 321 320 321 321 322 322 321 321 322 325 326 327 327 326 325 325 324 322 323 322
327 327 326 326 326 324 324 325 326 325 326 325 323 322 321 319 319 319 315 317 323 322 322 324 326 327 327 326 325 325 324 323 322
326 325 325 325 325 325 324 322 324 324 325 325 324 322 321 319 318 317 314 311 319 323 323 322 324 325 326 327 327 325 325 325 323
324 325 325 325 325 325 324 324 323 323 323 324 324 323 322 321 320 319 317 316 313 316 320 322 321 323 325 327 327 327 325 324 324
326 326 325 324 325 326 325 325 325 325 325 325 324 324 323 322 321 321 320 319 318 317 317 318 321 321 322 325 327 329 329 326 324
328 327 327 326 326 326 326 326 325 325 325 324 324 324 323 323 323 322 322 322 321 320 319 321 320 322 323 322 324 326 329 329 327
329 328 327 327 327 326 325 325 325 324 324 323 323 323 323 323 324 324 324 323 323 323 321 322 324 323 323 324 322 323 326 329 329
328 328 328 328 327 327 326 324 324 324 323 322 324 323 322 323 325 325 326 326 326 326 326 326 324 324 325 324 324 324 324 324 327
330 329 330 328 327 326 324 324 323 323 324 324 324 324 322 322 322 321 322 323 324 323 324 325 325 325 324 325 326 325 325 325 326
326 323 320 320 321 323 323 323 323 323 323 323 322 324 324 324 323 322 322 321 322 323 322 322 320 323 324 323 325 326 327 327 326
309 309 309 309 314 315 316 318 320 321 323 323 322 323 324 325 325 325 323 323 325 322 322 323 322 322 324 324 324 324 326 326 327
306 305 305 304 305 306 309 311 312 313 315 320 321 325 323 324 325 325 325 325 324 323 323 322 321 321 321 322 325 324 324 324 326
304 303 302 302 303 305 306 308 308 309 310 312 314 319 319 317 315 320 322 325 323 323 323 323 324 322 321 323 324 325 325 325 324
300 300 299 299 300 302 304 304 305 306 308 308 310 311 312 315 316 312 314 315 320 319 320 321 321 321 321 322 323 324 324 325 324
295 294 295 297 299 300 301 302 303 304 305 306 307 308 309 310 314 314 312 312 312 313 314 316 318 320 321 321 321 322 323 324 324

GFSFLT1_925_thetae_006.txt.gz
Theta_e
330 329 328 326 325 327 327 327 326 327 328 328 329 327 326 327 325 322 323 326 327 327 327 328 327 329 331 329 328 327 324 323 322
333 330 329 328 328 328 327 327 327 327 326 326 326 326 325 324 326 323 320 323 326 328 328 326 327 327 327 327 327 326 323 322 321
333 333 330 328 328 328 326 325 328 328 328 328 327 326 324 324 325 324 322 320 324 326 328 326 327 327 326 326 325 325 325 323 321
331 331 329 329 329 327 327 326 327 330 327 328 327 326 324 323 323 324 324 321 321 325 326 327 327 328 327 326 326 325 325 324 322
329 330 329 328 327 326 327 327 327 325 326 325 324 322 322 322 323 323 323 323 323 323 324 327 328 327 328 327 327 326 324 325 324
329 328 327 324 324 324 326 327 327 327 325 325 325 323 323 321 320 320 320 322 324 325 324 324 327 327 328 327 327 326 326 324 325
329 328 326 325 324 325 325 324 324 324 327 327 326 326 324 323 322 320 319 320 322 322 324 324 324 326 327 327 328 328 326 326 325
328 328 328 328 328 328 328 328 328 327 327 327 327 327 326 325 324 323 321 320 322 323 321 324 325 324 325 326 327 328 328 326 326
329 329 329 329 329 329 329 329 329 329 328 328 327 327 327 326 326 325 323 321 321 323 323 322 322 324 324 325 326 327 328 328 326
331 330 331 331 330 330 330 330 330 330 330 329 329 329 328 328 328 327 326 323 322 323 323 325 323 322 323 324 323 325 327 329 329
332 332 332 331 331 331 331 330 330 330 330 330 330 329 329 329 328 328 328 326 324 325 325 325 326 326 324 323 323 324 325 328 330
331 332 332 332 331 331 331 330 330 330 330 329 329 329 328 328 328 328 328 327 326 324 324 326 327 327 327 327 325 324 325 325 327
331 331 332 331 330 329 329 328 327 327 327 327 327 327 327 327 327 327 327 327 326 325 324 323 324 327 328 329 329 328 326 326 326
329 328 325 324 324 324 324 324 324 324 324 323 323 323 324 325 327 327 326 326 326 325 325 323 322 321 322 327 329 329 329 328 327
317 315 314 314 315 314 313 314 315 316 317 317 318 320 320 321 324 325 326 327 326 326 326 325 325 324 322 322 323 327 328 329 328
310 310 309 309 310 309 309 310 310 311 311 311 312 312 315 318 316 323 320 318 321 324 325 326 325 324 323 322 322 323 325 327 326
306 307 307 307 307 307 307 308 308 308 308 309 310 312 312 312 312 310 312 313 314 320 324 324 324 324 324 324 323 322 323 324 326
303 303 303 303 304 304 304 303 304 304 304 305 307 311 311 312 308 309 310 312 310 311 314 316 315 316 319 320 321 321 321 319 320
298 299 299 299 299 300 300 299 300 302 302 302 303 304 305 309 310 307 307 307 308 308 309 310 310 310 312 316 318 318 319 321 322
295 295 296 296 296 296 297 297 298 299 299 299 301 302 303 304 306 307 304 303 302 302 304 306 309 310 310 314 316 315 315 317 319

GFSFLT1_925_thetae_009.txt.gz
Theta_e
333 329 328 327 327 328 328 327 327 326 326 327 327 328 328 326 326 326 323 323 325 328 328 328 328 328 328 331 331 329 328 326 324
335 332 329 328 328 327 327 327 327 329 328 328 327 326 325 324 324 325 326 322 323 326 328 328 328 329 327 327 329 328 328 327 323
335 335 332 327 327 327 326 329 328 330 330 329 329 327 324 324 323 324 325 325 322 324 326 327 328 327 328 327 327 327 326 327 325
330 332 330 328 329 329 328 325 328 329 330 331 329 325 323 324 323 323 324 324 324 323 324 326 328 328 329 330 328 327 327 326 326
328 329 329 329 328 326 323 328 327 328 329 326 325 324 324 324 323 323 323 323 325 325 324 324 325 327 329 327 329 328 327 326 326
329 328 327 324 322 323 324 327 328 325 324 325 327 326 327 325 324 322 321 321 323 325 326 326 325 326 328 329 328 329 328 327 327
329 327 326 326 326 327 327 328 328 328 329 328 328 328 328 327 326 325 324 321 322 324 325 325 325 326 326 327 328 328 330 330 327
329 329 330 330 330 330 330 331 331 330 329 329 329 328 328 328 328 327 326 324 324 325 326 326 325 325 326 326 326 328 328 329 330
330 330 331 331 331 331 331 331 331 331 331 331 330 330 330 329 329 328 328 327 326 326 326 328 328 326 325 326 327 326 327 328 329
333 333 332 332 333 333 333 332 332 332 332 331 331 331 331 331 330 330 330 329 328 327 327 327 329 329 328 326 325 326 326 327 328
334 334 334 333 333 332 332 332 331 331 330 330 330 330 330 329 329 330 330 330 329 328 328 328 328 331 331 330 328 325 326 326 327
334 334 333 332 331 331 330 329 328 327 327 326 326 326 327 327 327 327 328 328 329 328 328 327 328 328 330 331 331 330 328 326 327
333 332 329 326 326 325 324 322 321 321 320 321 322 321 322 322 323 324 325 327 327 327 327 327 326 326 327 328 330 330 330 330 328
324 319 316 316 316 315 313 313 313 313 313 314 314 313 316 318 318 320 323 324 326 327 327 326 326 326 326 326 326 327 329 330 329
314 313 312 311 311 311 311 311 311 311 311 311 310 312 311 312 314 318 315 312 312 314 314 320 325 326 327 326 326 326 327 327 327
309 309 309 309 309 309 308 307 307 307 307 307 308 307 310 308 310 308 308 310 312 310 314 316 315 318 320 321 322 322 324 326 326
306 305 305 305 305 305 304 303 303 303 303 305 305 307 307 306 305 305 308 307 309 307 310 310 310 310 312 313 313 316 320 321 320
301 301 301 300 301 300 300 300 300 302 301 301 302 304 304 305 304 304 305 303 303 305 303 304 305 306 306 306 307 311 312 315 318
297 297 298 298 298 298 298 297 298 299 300 299 299 300 301 303 303 302 301 301 300 300 301 301 301 302 306 306 306 311 313 312 312
296 296 296 296 296 296 296 296 297 298 298 297 298 298 300 300 300 299 299 298 297 299 299 300 301 303 305 307 306 304 306 306 307

GFSFLT1_925_thetae_012.txt.gz
Theta_e
334 329 328 327 328 326 327 327 327 327 327 326 324 325 326 327 324 324 326 324 322 326 329 329 328 328 328 329 331 332 330 329 327
336 332 328 327 326 327 327 326 328 330 330 329 329 328 323 319 320 323 324 326 324 324 327 329 328 329 329 328 328 329 329 328 328
335 334 332 328 327 328 328 328 328 329 331 332 331 330 327 323 322 324 322 324 326 325 324 327 328 328 328 329 328 327 327 327 328
329 332 330 328 327 326 327 328 328 327 329 329 330 329 326 323 322 320 322 323 326 327 326 325 326 327 329 328 331 330 328 327 327
326 328 328 328 329 327 321 323 327 327 325 326 323 323 324 325 324 324 323 323 324 326 326 326 325 326 327 328 329 329 331 329 328
330 329 328 326 323 321 322 323 325 327 327 326 327 328 327 327 326 325 324 322 324 324 326 327 327 326 326 327 328 329 328 331 330
329 328 326 328 329 329 329 330 330 330 329 329 329 328 328 328 328 327 326 326 326 325 325 326 327 328 327 327 327 328 329 329 330
329 329 329 330 331 330 330 331 331 331 331 330 330 330 329 329 328 328 328 328 328 328 327 327 328 328 329 327 327 327 327 329 329
330 331 331 331 331 332 332 332 332 332 332 332 331 331 331 331 330 330 330 329 329 329 330 329 329 330 330 331 329 327 328 327 327
333 333 333 333 333 332 332 331 331 330 330 330 329 328 329 328 329 328 328 329 330 330 330 331 331 331 330 331 332 330 328 327 328
334 333 333 332 332 331 330 329 327 326 325 325 325 324 324 324 324 325 325 325 327 328 328 330 331 331 331 330 330 330 331 330 328
333 332 330 326 326 324 323 319 317 316 316 315 319 319 319 318 321 321 321 322 323 327 327 327 327 328 329 329 329 328 329 329 330
328 321 318 316 316 313 312 311 312 311 311 312 312 312 311 312 314 313 314 316 316 315 315 318 318 323 325 326 327 328 328 328 328
314 312 311 311 311 311 310 309 309 308 308 308 307 308 309 307 309 310 308 305 306 309 311 311 312 315 317 322 325 326 325 326 326
310 309 308 308 308 307 306 305 304 304 304 303 305 302 305 306 306 303 301 305 305 306 309 309 310 310 309 311 313 315 318 319 322
305 305 304 303 304 303 302 301 300 302 301 303 301 303 303 303 302 299 304 302 304 305 303 305 304 302 303 304 305 307 307 309 312
301 300 300 299 300 299 299 298 299 300 300 300 300 300 300 301 299 301 301 302 300 299 301 300 299 300 300 300 300 304 308 310 313
298 298 298 297 298 297 297 297 297 299 298 298 298 298 299 298 300 299 300 298 298 298 297 297 298 298 299 299 299 302 306 308 310
296 296 296 296 296 295 295 295 295 297 298 297 297 296 297 297 298 298 296 296 295 296 296 296 298 297 296 299 299 301 300 302 303
296 295 295 295 294 294 293 293 294 294 295 296 296 295 295 294 294 295 294 294 294 295 295 297 296 295 296 294 295 297 297 298 299

GFSFLT1_925_thetae_015.txt.gz
Theta_e
333 328 328 327 325 325 324 324 325 326 326 327 327 326 324 323 324 322 323 325 323 324 328 329 329 329 329 329 331 333 332 331 329
335 330 328 327 326 326 327 327 328 329 330 331 331 330 327 324 321 320 320 322 325 326 325 328 329 329 329 329 329 328 330 331 329
336 334 331 329 328 327 328 329 329 328 329 331 332 330 329 326 323 321 319 322 324 328 327 326 326 329 329 330 329 329 329 328 329
330 333 332 329 327 327 327 328 329 329 328 328 329 326 325 325 325 325 322 320 322 327 329 328 327 326 327 328 330 329 330 330 329
325 326 327 327 328 327 321 321 322 324 326 325 323 323 325 326 326 326 324 324 323 327 327 328 328 328 327 327 328 330 330 329 331
329 328 328 327 325 326 328 329 329 330 329 329 328 328 328 328 328 328 327 326 325 328 325 324 326 328 329 329 328 328 328 330 329
330 328 327 329 330 330 330 330 330 331 330 330 330 330 330 329 329 328 328 328 329 329 328 327 326 327 329 330 330 329 329 328 328
328 329 329 330 331 331 331 331 331 331 331 331 331 330 330 330 329 330 329 329 330 331 330 330 329 328 329 330 331 332 330 329 328
330 330 331 332 331 332 332 331 331 331 329 329 329 326 326 326 325 325 326 327 327 330 330 329 329 330 331 332 331 331 331 331 329
333 332 333 332 332 331 330 327 325 322 321 321 320 319 321 320 319 318 319 319 319 321 325 329 329 329 330 331 331 330 329 331 331
333 332 329 328 326 322 318 316 315 316 316 315 314 313 314 314 312 313 313 313 317 319 319 324 327 328 328 328 329 327 328 328 329
330 323 318 315 316 316 316 312 311 311 310 309 310 310 309 308 308 309 310 308 307 308 311 312 315 318 319 322 324 326 327 327 328
325 317 313 312 312 311 309 308 307 305 305 305 303 303 303 303 307 306 304 302 304 302 307 307 308 310 312 313 315 317 318 318 321
313 310 309 309 309 307 305 303 300 302 300 300 302 298 303 302 304 303 300 301 302 303 303 301 302 302 304 306 307 308 309 309 310
309 307 304 303 304 302 299 298 297 299 299 301 297 299 303 299 301 297 299 299 300 301 298 299 299 299 299 302 302 303 304 305 308
303 302 300 300 300 298 298 297 297 298 298 299 297 299 300 298 297 296 300 297 299 297 298 297 295 296 298 297 299 302 300 303 305
300 299 298 297 297 296 297 296 296 297 297 297 297 297 297 298 294 297 294 299 296 296 294 294 295 295 296 297 296 297 300 304 304
298 297 296 296 296 294 294 294 294 296 295 295 296 295 295 294 297 294 296 293 294 294 294 294 294 295 295 294 293 295 296 299 301
296 295 295 295 294 293 293 293 293 292 294 293 295 294 294 293 293 295 292 294 293 293 293 293 294 293 294 292 291 294 295 296 298
294 294 294 293 293 293 292 292 292 291 292 293 292 293 292 292 291 291 291 292 292 292 292 292 292 293 291 291 291 292 293 294 295

GFSFLT1_925_thetae_018.txt.gz
Theta_e
330 327 327 327 325 325 324 324 325 326 326 327 329 329 327 324 321 319 319 319 324 327 326 330 329 330 329 329 331 332 334 333 332
333 330 328 328 325 326 326 327 328 329 329 330 331 330 329 327 325 322 319 319 321 327 329 326 329 330 329 329 329 329 330 329 330
335 333 331 329 328 327 327 328 329 329 328 329 330 330 328 327 325 325 324 322 319 327 329 330 327 327 328 329 328 330 329 329 329
332 334 332 330 327 327 327 324 324 325 326 326 324 323 323 325 326 326 325 324 322 326 328 329 330 329 328 327 327 327 330 328 331
328 329 328 327 327 324 322 326 328 329 329 328 328 327 328 327 327 327 327 327 326 328 330 329 329 329 330 330 329 328 327 327 329
328 327 327 327 328 329 329 329 330 330 330 330 330 330 330 329 329 328 328 328 328 330 331 330 327 327 328 329 331 331 330 329 328
329 328 327 328 330 330 330 330 331 331 331 330 330 330 330 330 329 329 329 329 330 333 332 331 331 329 328 327 330 331 331 331 331
328 328 328 329 329 330 330 331 331 331 330 328 328 325 325 325 322 320 321 322 327 327 327 329 330 330 330 331 331 332 332 332 332
328 329 330 331 331 331 330 329 325 323 320 318 318 317 318 316 314 313 314 316 317 321 324 327 329 330 330 331 331 331 331 329 329
332 332 331 329 328 325 320 319 319 319 318 316 314 313 313 311 311 310 311 312 313 315 318 320 322 324 326 326 327 328 328 329 328
332 328 323 320 318 318 317 316 313 311 310 310 309 309 308 306 305 308 308 305 306 305 312 313 315 320 319 320 320 320 320 321 322
326 323 318 316 315 314 311 309 308 306 304 303 303 302 300 301 307 305 301 302 302 301 307 307 311 309 310 311 313 314 314 313 313
322 319 314 311 310 309 307 303 300 300 298 298 299 298 302 302 303 301 298 300 298 301 299 301 301 301 302 305 307 308 308 308 309
317 309 308 307 305 303 300 298 298 297 297 298 297 298 301 299 300 297 297 297 297 298 297 296 295 296 300 301 302 304 305 305 304
308 305 303 302 301 298 297 296 296 297 296 297 295 298 301 298 298 295 297 295 298 297 295 294 292 293 297 297 300 301 301 301 302
303 302 300 299 298 296 296 295 294 296 294 296 296 297 298 297 295 295 295 295 295 294 294 293 293 293 293 296 298 297 297 299 299
301 299 298 297 295 294 294 294 293 294 294 294 295 294 295 296 293 295 293 295 292 294 293 292 292 292 295 294 294 294 294 296 298
298 297 296 295 294 293 293 293 292 292 293 295 293 292 293 292 294 292 294 292 292 292 292 291 292 292 292 291 292 292 293 293 295
296 295 295 294 293 292 292 292 291 291 292 292 292 292 292 291 291 292 291 291 290 291 291 290 292 291 291 291 291 291 291 292 295
295 294 293 293 292 292 291 291 291 291 290 290 290 291 290 290 290 290 289 289 290 290 290 290 290 290 290 290 290 290 291 293 294

GFSFLT1_925_thetae_021.txt.gz
Theta_e
331 329 327 327 324 324 322 323 324 325 326 329 330 329 328 324 323 322 319 317 317 326 328 329 330 330 330 330 329 331 333 333 333
333 331 328 327 325 325 325 326 328 328 329 330 329 330 329 328 326 325 324 323 319 325 328 330 327 330 330 328 328 329 328 329 329
334 333 330 329 327 326 325 326 327 328 329 329 329 327 325 324 325 326 326 324 322 325 328 329 331 329 328 327 328 328 329 329 329
334 334 332 329 327 326 325 324 326 328 329 329 328 327 325 325 326 327 327 327 325 329 329 330 330 331 331 330 329 329 328 328 329
329 331 329 326 326 326 326 327 329 329 329 329 329 329 329 328 328 328 328 328 327 329 332 332 332 330 330 330 331 331 331 329 328
325 326 326 327 327 328 329 329 330 330 330 330 330 330 330 329 329 328 327 328 331 333 334 333 333 333 330 328 328 330 332 332 331
328 328 327 327 328 328 329 330 330 331 330 329 329 326 325 325 322 320 320 325 328 329 328 329 330 332 332 330 330 330 331 333 332
327 328 327 327 328 328 330 330 329 327 325 322 319 319 319 317 315 313 314 318 322 322 323 325 328 330 332 331 331 332 332 332 332
327 327 328 331 331 330 328 326 321 318 318 317 315 313 311 311 310 310 309 310 316 318 320 322 322 324 326 327 328 327 327 328 329
330 330 329 329 326 322 319 317 317 314 312 309 308 307 305 305 306 306 304 305 306 312 316 315 319 318 318 319 319 320 320 320 320
329 326 322 320 316 314 313 312 309 307 306 304 302 301 299 301 305 302 301 302 301 305 308 312 310 310 310 311 313 314 314 313 313
325 323 321 314 313 310 308 305 303 302 300 300 299 299 299 304 301 299 298 299 296 299 305 304 303 303 304 307 308 309 309 310 310
325 320 316 309 308 305 303 301 299 298 297 297 298 297 299 301 299 297 297 296 296 298 298 296 297 299 301 302 303 305 306 306 305
320 311 306 304 303 301 299 297 296 296 296 296 297 297 298 299 298 295 296 294 296 295 295 295 293 295 298 299 301 303 303 302 302
307 304 302 301 300 298 296 295 295 296 293 294 295 297 298 299 297 294 296 293 295 293 293 293 291 291 294 296 298 299 299 299 300
303 302 301 299 297 295 294 294 293 294 293 294 294 296 297 296 296 293 294 292 294 292 293 290 291 290 292 293 294 295 296 297 298
302 300 298 296 295 294 293 293 292 292 293 293 293 292 293 296 293 293 292 293 292 291 290 290 290 290 291 291 292 293 293 295 296
300 298 297 295 293 293 292 292 291 291 292 293 291 289 290 290 292 292 292 291 291 290 289 289 289 290 290 289 290 291 292 293 294
297 296 295 293 293 292 291 291 290 290 290 290 290 291 291 289 289 290 290 290 289 288 288 289 289 289 289 289 290 291 291 292 294
295 294 293 292 292 291 291 290 290 290 289 289 289 289 288 289 288 288 288 288 287 287 288 288 288 288 288 289 289 289 290 291 293

GFSFLT1_925_thetae_024.txt.gz
Theta_e
332 331 327 326 323 322 321 321 321 323 324 326 330 329 327 327 325 324 324 322 318 322 327 329 330 330 330 331 330 329 330 333 334
333 332 328 327 324 324 324 326 327 329 328 329 330 330 329 327 325 325 325 324 322 326 327 329 330 328 329 329 327 328 328 328 328
333 333 329 329 326 326 327 330 330 331 331 331 330 326 325 325 325 326 326 326 325 329 329 329 330 331 330 329 328 328 328 329 331
332 332 332 329 327 329 328 330 331 330 329 329 329 329 328 328 328 328 328 327 327 332 333 332 331 331 331 333 331 331 330 330 329
331 332 330 327 327 328 329 329 329 330 330 330 330 330 330 329 329 329 328 328 329 332 334 333 333 334 333 331 330 331 332 332 331
326 325 327 327 328 328 329 329 330 330 330 330 329 328 327 326 324 323 321 324 330 331 332 330 331 332 332 331 331 330 330 332 333
327 327 327 327 327 328 328 329 329 328 326 327 324 322 322 320 318 316 315 322 324 325 325 326 328 330 332 330 330 330 331 332 332
326 327 327 327 328 328 329 329 325 320 318 317 316 315 314 313 312 312 312 314 320 321 322 323 324 326 327 329 328 327 328 328 329
327 327 328 330 329 328 326 322 317 317 315 312 311 309 308 306 307 307 307 309 313 317 317 318 321 319 319 320 320 321 321 321 321
328 329 329 327 323 321 317 315 314 310 306 304 303 302 300 302 303 302 303 304 306 310 313 315 313 312 312 313 315 315 315 315 315
331 325 321 319 315 314 311 308 305 303 301 299 299 298 300 303 301 300 300 299 298 307 307 307 306 307 309 310 310 310 311 311 312
324 321 318 314 312 307 304 302 300 299 299 298 298 297 298 301 298 297 297 296 297 299 301 302 302 302 304 306 306 307 308 308 308
323 321 313 307 305 302 301 299 298 297 297 297 297 296 296 300 297 295 295 295 295 296 295 295 295 297 299 301 302 304 305 305 304
322 316 306 302 301 300 298 297 296 295 295 296 296 296 296 299 296 295 295 294 293 294 293 293 291 292 296 298 300 301 301 302 302
313 305 302 300 300 298 296 295 293 293 293 295 295 296 297 298 297 295 294 294 293 293 292 291 290 290 292 295 297 297 298 299 300
304 303 301 299 299 295 294 293 293 292 292 293 294 295 294 297 295 293 293 293 293 292 291 290 289 289 289 291 293 294 295 297 298
303 302 300 298 295 294 293 293 292 291 291 291 291 290 292 293 294 293 293 293 292 291 290 289 288 288 289 289 291 291 293 294 296
301 300 298 295 294 293 292 291 291 291 290 291 290 288 288 289 291 292 291 292 290 289 288 287 288 288 288 288 288 290 292 293 294
299 297 295 294 293 292 291 290 290 290 289 290 289 289 290 288 288 289 289 289 288 287 287 287 287 287 287 288 288 290 290 292 294
296 295 294 293 292 291 290 290 289 289 289 288 288 288 288 288 287 287 286 286 286 286 286 286 286 286 287 287 288 289 290 291 292

GFSFLT1_925_thetae_027.txt.gz
Theta_e
331 331 327 324 322 322 323 323 324 324 326 329 330 331 330 328 328 325 325 325 323 326 326 328 329 331 331 330 331 330 330 331 334
333 332 328 327 323 324 326 328 329 330 330 330 330 328 326 328 328 326 326 326 325 330 329 328 330 330 329 330 331 327 328 329 329
333 332 330 328 326 327 328 331 332 331 331 330 329 328 328 328 328 327 327 327 327 331 333 331 330 331 332 330 329 330 329 329 329
333 332 331 328 328 330 329 331 331 330 330 330 330 330 330 331 329 329 328 328 328 330 334 334 334 333 332 333 333 333 332 332 331
333 333 330 328 329 329 330 330 330 330 330 330 329 329 329 327 327 327 325 325 330 332 332 332 332 332 332 332 332 332 332 333 333
327 328 328 328 328 328 329 329 329 329 328 327 327 326 325 324 322 320 319 323 327 328 328 328 329 331 332 332 329 330 331 332 333
325 326 327 327 327 328 328 329 327 326 323 322 320 319 317 317 316 315 314 319 323 324 325 325 325 328 329 330 329 330 330 330 331
326 326 327 327 328 328 329 326 322 319 318 317 315 313 312 311 311 310 311 313 317 320 319 322 323 322 322 322 323 323 323 323 323
326 327 328 329 327 326 324 318 316 316 313 309 307 305 304 304 305 305 307 309 315 315 319 318 316 315 315 316 318 317 317 317 317
328 328 328 326 323 319 317 314 311 306 303 301 301 300 300 302 302 302 302 303 307 313 313 311 310 311 312 313 312 312 313 314 314
330 326 324 319 316 314 312 307 303 300 299 298 299 298 299 301 300 300 300 299 304 306 306 306 306 306 307 309 309 309 310 310 311
328 324 318 315 311 307 303 301 299 298 297 297 297 296 297 299 297 296 296 296 296 297 301 300 300 300 302 304 305 306 307 307 307
323 320 319 310 304 302 300 298 297 297 297 297 296 296 296 299 296 295 295 295 294 294 294 293 293 296 298 300 302 303 304 304 304
321 315 308 304 302 301 299 297 296 296 296 297 296 296 296 298 295 294 294 294 293 293 292 291 291 290 294 296 298 300 300 301 302
314 305 304 302 302 299 297 295 294 293 294 295 295 296 296 297 295 294 292 292 292 292 291 291 290 290 290 294 295 296 297 298 299
305 303 303 301 300 297 295 294 293 292 292 293 295 294 293 295 297 293 292 292 292 291 291 290 289 289 289 289 291 294 295 296 298
302 304 302 300 297 295 294 293 292 291 291 292 292 295 295 293 293 292 292 291 291 290 290 289 288 288 289 289 290 291 292 294 296
302 302 300 297 296 294 292 292 291 292 290 291 292 294 294 292 292 292 291 291 289 289 288 288 287 287 288 288 289 289 291 292 294
299 299 298 296 294 292 291 290 290 290 291 290 289 289 290 292 292 290 290 288 288 287 287 287 287 287 287 287 288 288 290 292 293
297 297 296 294 292 291 290 290 289 289 289 289 289 288 289 288 289 290 290 288 288 287 287 286 286 286 287 287 287 288 289 290 292

GFSFLT1_925_thetae_030.txt.gz
Theta_e
331 331 327 321 322 325 325 327 325 325 326 329 331 330 329 328 330 330 329 329 324 328 328 327 329 331 333 332 331 331 331 331 333
333 331 328 325 324 325 327 329 330 330 331 332 330 327 325 330 331 331 331 330 327 331 332 331 329 330 331 330 331 332 330 329 329
333 333 329 327 326 328 329 332 332 332 331 331 330 329 329 332 332 332 332 331 328 329 333 334 333 332 332 333 332 331 331 330 331
332 332 331 328 329 329 330 331 331 331 331 330 330 329 329 331 331 332 331 329 329 330 333 334 334 334 334 334 333 334 334 333 333
334 332 330 329 329 329 330 330 330 330 330 329 328 327 327 329 329 328 326 324 330 331 330 330 331 332 333 333 330 331 332 334 334
332 333 328 328 328 328 329 329 329 327 326 325 325 324 323 324 323 324 319 325 327 326 327 326 327 330 331 331 331 331 331 331 331
328 328 327 327 328 328 328 329 325 321 320 318 318 318 317 318 318 319 315 321 322 324 322 327 325 325 325 325 325 326 326 326 326
327 328 328 330 328 329 325 324 317 316 316 315 313 311 312 313 311 314 310 316 321 320 323 321 319 318 318 320 320 320 320 320 320
328 329 331 328 323 325 323 315 313 311 309 308 306 305 306 306 306 310 306 308 314 318 318 315 314 314 315 316 315 315 316 317 317
329 328 324 325 324 321 314 312 309 307 304 304 303 303 305 303 304 306 302 304 312 312 312 310 310 310 311 312 311 311 312 313 314
327 327 327 323 319 316 309 307 304 303 302 302 302 301 303 301 302 302 303 301 305 307 306 305 304 305 305 307 307 308 309 309 310
329 326 324 320 317 307 305 303 302 301 301 301 301 300 301 300 300 300 299 298 296 299 300 299 299 299 300 302 303 305 306 306 306
328 324 318 313 309 303 302 302 302 301 301 301 301 300 299 300 299 299 298 297 297 296 294 293 292 294 297 299 301 302 303 304 303
326 320 313 304 302 302 300 300 300 300 300 299 299 300 300 300 298 298 297 296 296 296 295 293 292 292 295 297 298 299 300 301 301
319 313 304 302 302 300 299 299 298 298 298 298 299 300 300 299 298 298 296 295 295 295 294 294 293 292 293 294 295 296 298 299 299
317 305 301 301 300 299 298 298 298 297 296 298 300 299 297 298 299 298 296 295 294 294 293 293 292 292 292 292 293 294 295 296 297
309 301 300 300 299 298 297 297 297 296 295 296 298 301 299 297 297 296 295 295 294 293 292 292 291 291 291 291 291 291 293 294 296
301 300 300 299 299 297 296 296 296 297 295 294 296 299 300 296 296 296 294 294 293 292 292 291 291 290 290 290 290 290 291 292 294
299 299 298 298 297 296 295 294 294 295 295 294 293 293 293 296 296 295 294 293 292 291 291 290 290 290 289 289 289 289 290 291 293
297 298 297 296 296 294 294 293 293 293 293 293 293 293 293 292 293 294 294 292 292 291 290 290 289 289 289 289 289 289 289 290 291

GFSFLT1_925_thetae_033.txt.gz
Theta_e
332 329 323 323 326 327 327 327 323 323 324 326 328 329 325 330 331 331 331 331 328 330 332 330 328 330 332 333 332 332 332 331 332
333 329 327 323 324 327 329 331 330 330 331 332 331 328 328 330 331 331 331 332 328 330 333 333 333 331 331 332 332 331 332 333 330
334 332 329 326 327 329 331 332 332 332 332 331 330 330 329 332 332 332 331 332 329 334 335 335 335 335 335 333 333 334 332 332 332
332 333 330 327 329 329 331 332 331 330 330 329 329 328 327 328 330 331 329 326 331 333 332 333 333 333 334 333 333 333 334 335 334
334 332 330 328 329 330 330 330 330 329 329 326 326 326 328 329 328 327 326 326 329 329 330 329 330 332 332 332 333 332 332 332 332
332 334 329 328 329 329 329 329 327 326 324 322 323 322 323 323 323 323 319 324 325 327 325 329 329 327 327 327 328 328 328 328 328
332 332 325 328 328 328 328 329 323 322 323 321 320 320 319 319 318 319 315 319 321 323 325 324 322 321 321 323 323 322 323 323 322
327 328 327 330 329 329 324 321 320 319 318 318 316 311 311 312 311 314 310 316 319 321 322 318 318 318 318 319 318 317 318 319 319
327 329 330 331 328 323 324 319 317 314 312 310 308 307 308 308 307 311 307 307 317 319 316 314 313 313 314 315 314 313 314 315 316
329 330 329 324 321 322 319 317 314 310 307 306 306 305 306 305 305 307 304 311 312 312 311 310 309 309 309 309 309 310 310 311 312
331 327 323 325 322 318 314 311 308 306 305 304 304 303 304 303 304 304 305 302 305 307 306 304 304 303 304 305 306 306 307 308 308
328 323 325 322 317 314 310 306 305 305 304 304 303 303 302 303 302 302 302 301 298 297 296 295 295 297 300 302 303 304 305 306 306
324 325 323 315 311 309 306 305 305 304 303 303 303 302 302 302 301 301 300 299 299 299 298 295 293 293 297 300 301 302 303 303 304
324 324 315 310 307 306 304 303 303 303 302 301 301 301 302 302 300 300 299 298 297 297 297 295 295 294 295 297 299 300 300 301 302
320 317 310 307 305 304 303 303 301 300 300 301 301 302 301 302 300 300 299 298 297 296 296 296 295 294 294 295 296 297 298 299 300
320 318 307 305 305 304 302 301 302 300 298 300 302 302 300 300 300 300 299 298 297 296 295 294 294 293 293 294 294 295 296 297 298
317 311 306 304 302 301 301 301 300 299 298 298 300 304 302 300 300 299 297 296 296 295 294 293 293 292 292 292 293 293 293 295 296
314 304 303 303 302 301 300 300 300 300 298 296 297 302 303 298 298 298 297 296 296 294 294 293 293 292 291 291 291 291 292 293 295
306 303 302 301 301 300 299 298 297 298 298 297 295 295 295 297 298 297 296 296 294 294 294 293 292 291 291 291 291 291 291 292 293
303 305 300 300 300 298 297 297 296 295 296 295 295 295 295 295 295 296 296 295 294 294 293 292 292 291 291 290 290 290 290 291 292

GFSFLT1_925_thetae_036.txt.gz
Theta_e
332 325 323 325 327 328 329 327 326 323 325 327 327 324 325 331 330 331 331 331 329 331 334 333 331 329 330 332 333 333 333 333 331
332 327 323 325 327 330 332 332 331 329 330 330 329 328 329 331 332 331 331 332 330 333 334 333 335 335 333 332 333 334 332 332 333
334 329 325 325 328 329 331 331 331 330 330 329 329 328 326 328 332 331 329 328 333 334 334 334 334 335 334 334 334 334 334 334 333
335 331 327 326 328 329 330 330 330 330 329 327 327 326 327 330 329 328 328 325 331 331 332 331 333 333 333 333 333 333 333 333 332
334 332 328 327 328 329 329 329 328 327 326 325 325 324 324 325 324 326 324 326 328 329 328 331 331 329 329 329 330 329 329 329 329
332 333 328 327 328 329 329 329 326 324 323 321 321 321 320 320 321 321 320 322 325 325 329 327 325 324 324 325 324 324 324 324 324
334 333 327 327 328 328 328 328 321 321 321 320 318 318 317 316 316 316 315 322 324 324 323 321 320 320 321 320 320 319 320 321 321
333 327 324 327 328 327 324 322 319 319 319 316 312 309 309 310 309 311 311 310 317 323 319 317 316 316 317 317 316 315 316 317 317
328 328 329 330 330 326 324 319 316 314 311 309 308 306 307 308 306 308 308 310 319 318 315 313 312 312 312 312 312 312 312 313 313
327 329 330 328 325 324 319 316 313 310 307 305 305 304 305 305 304 306 305 306 312 313 311 309 308 307 307 307 308 308 308 309 310
328 329 328 326 325 319 316 314 310 306 305 304 304 303 303 303 303 303 304 303 305 307 305 304 303 304 304 305 305 305 306 307 308
330 329 326 324 318 314 313 311 306 305 304 304 303 303 302 302 302 302 301 300 299 297 296 296 296 298 301 302 304 304 305 305 306
331 328 325 321 316 310 309 306 305 304 303 303 302 302 302 301 301 301 301 299 299 299 298 297 295 295 298 300 302 303 303 303 304
330 325 322 317 310 308 306 304 304 303 302 301 301 301 301 302 301 300 300 299 298 297 297 297 295 297 297 298 299 300 301 302 302
326 323 319 312 308 306 303 304 303 301 300 301 301 302 301 302 300 300 299 298 298 297 296 295 294 294 295 296 297 298 299 299 300
321 319 314 311 307 304 303 302 302 301 300 301 301 302 301 300 300 300 300 298 298 297 296 295 294 293 293 293 294 296 296 297 299
319 317 311 307 305 303 302 302 301 299 298 298 298 299 299 299 299 300 298 297 296 296 295 294 294 293 292 292 293 293 294 295 296
317 310 307 306 304 302 302 301 301 300 298 296 296 296 297 295 298 299 298 297 296 295 295 294 293 293 292 291 291 291 293 294 295
310 308 306 304 303 302 301 300 299 299 298 297 296 295 295 293 293 296 296 295 295 294 294 293 293 293 292 291 291 291 292 293 294
307 306 303 303 302 301 299 298 298 297 296 295 295 295 295 295 293 291 293 294 293 293 293 293 292 292 292 291 291 290 291 292 293

GFSFLT1_925_thetae_039.txt.gz
Theta_e
328 328 328 328 329 329 329 328 324 322 323 324 323 324 329 330 331 330 330 331 330 331 332 332 332 327 326 330 332 333 332 333 333
327 324 325 327 330 331 332 332 327 328 329 328 328 328 330 330 331 331 331 329 334 335 333 332 334 335 334 333 331 334 335 332 332
329 324 324 326 329 332 333 331 329 329 329 328 327 326 326 330 330 329 327 328 334 333 333 334 334 334 334 334 334 334 333 334 335
331 328 325 328 329 329 329 329 329 328 327 325 325 326 327 328 328 327 326 328 332 331 330 333 332 331 331 331 331 331 330 331 332
334 330 325 327 328 328 329 328 326 325 323 323 323 322 321 325 324 324 323 326 330 328 331 329 327 326 328 327 326 326 326 327 327
333 330 325 326 328 328 329 326 325 323 320 320 319 320 318 319 320 319 318 321 325 328 326 324 323 324 324 322 322 322 323 323 323
332 332 325 327 327 328 329 324 321 320 321 318 317 317 315 313 315 315 313 323 324 325 322 320 320 321 320 319 318 317 318 319 319
332 333 327 327 328 328 326 320 319 318 316 315 311 308 309 309 308 309 310 313 320 321 318 317 316 316 316 315 314 314 314 315 315
334 327 323 327 328 326 322 319 317 314 312 308 307 305 307 307 306 306 307 312 320 318 315 313 312 311 311 310 310 309 310 310 312
330 327 327 329 329 326 319 316 314 312 308 305 305 305 304 305 304 305 305 305 314 313 311 309 307 307 307 307 307 307 308 309 309
326 328 329 327 325 321 318 316 313 308 305 304 303 303 303 303 303 303 303 303 306 307 306 304 304 303 304 305 306 307 307 307 307
326 328 327 327 325 318 314 313 309 305 304 304 303 303 302 302 302 302 302 301 299 298 299 299 300 300 301 303 304 305 305 305 306
328 328 329 326 321 315 313 309 306 305 304 303 302 301 302 301 301 301 301 300 299 299 298 297 297 299 300 301 302 303 303 304 304
329 329 328 324 318 312 311 307 305 304 304 302 301 300 301 301 301 300 300 300 299 298 297 296 295 296 298 299 300 301 301 302 302
330 329 326 322 315 311 309 305 304 303 303 302 301 301 301 302 301 300 299 299 298 298 297 295 295 294 294 296 297 297 299 300 300
330 329 323 317 315 312 306 304 304 302 302 302 301 301 300 300 300 300 300 299 298 297 296 295 294 294 294 293 294 296 297 298 299
330 328 320 314 310 306 304 305 302 301 300 299 298 297 299 299 299 300 300 297 296 296 295 295 294 294 293 293 293 293 294 295 297
329 325 318 312 309 305 304 304 304 301 298 297 298 296 297 293 297 299 298 296 296 295 294 294 293 293 293 292 292 291 293 294 296
324 319 311 309 305 304 303 303 303 302 299 297 296 295 295 293 293 296 296 295 294 294 293 293 293 292 292 292 292 291 292 293 295
318 309 308 307 306 304 303 301 300 300 299 298 296 295 295 294 292 291 292 294 293 292 292 292 291 291 291 291 291 291 292 293 293

GFSFLT1_925_thetae_042.txt.gz
Theta_e
328 328 329 330 330 330 330 328 322 320 320 322 323 328 329 330 330 329 330 330 331 331 331 332 332 331 326 329 332 332 332 332 332
329 329 329 330 330 330 331 329 325 326 327 328 328 328 328 329 331 331 331 332 335 334 333 333 334 335 334 332 330 333 334 333 332
329 329 330 331 332 332 332 329 328 328 328 327 326 326 328 329 329 328 330 328 333 333 333 333 333 334 334 334 333 333 333 333 334
329 327 329 331 332 332 330 329 328 327 325 325 325 326 326 328 327 327 328 329 331 330 333 331 330 329 330 329 328 328 329 331 331
329 325 328 330 329 329 329 328 327 324 323 322 321 321 324 327 324 323 324 330 328 331 329 327 326 326 325 325 325 325 325 326 326
332 328 325 327 327 328 328 326 324 321 319 319 319 319 319 320 320 319 319 325 327 326 324 323 324 323 322 321 320 320 321 321 321
333 329 324 326 328 328 328 324 322 322 319 319 316 316 315 315 315 314 316 321 327 323 321 320 320 320 318 317 316 316 317 317 317
332 330 325 327 327 328 328 320 320 319 318 315 311 308 309 310 309 309 309 316 324 320 318 316 315 315 314 314 312 312 312 313 313
331 331 329 326 327 327 325 320 318 314 311 309 307 306 307 307 306 306 306 319 321 317 315 313 311 310 309 309 309 309 310 310 310
332 333 329 326 327 325 321 318 315 312 309 306 305 304 304 305 304 304 305 309 316 313 311 309 308 307 307 308 308 308 308 309 309
332 331 323 328 329 325 320 317 313 310 306 304 303 303 303 303 303 303 303 304 308 308 306 304 304 304 305 306 307 307 307 307 308
331 328 326 328 329 324 318 313 311 308 305 304 303 302 302 302 302 302 302 301 300 299 302 301 302 302 303 304 305 305 306 306 306
328 326 327 328 325 320 316 313 310 305 304 303 302 302 302 301 301 301 301 300 299 299 298 297 298 300 301 302 303 304 303 303 304
325 326 327 326 320 317 314 312 308 304 304 303 301 301 301 301 301 301 300 300 299 298 297 296 295 295 296 298 300 300 301 302 302
325 326 327 323 320 317 313 311 306 304 304 302 301 301 301 302 300 300 300 299 298 298 297 296 295 295 294 294 296 298 299 300 300
326 327 326 322 322 319 312 307 304 303 302 302 301 301 300 301 300 300 299 299 298 297 296 295 294 294 294 293 293 295 296 298 298
328 328 326 324 319 313 311 308 304 303 302 301 299 298 299 299 299 299 299 298 297 296 295 294 294 293 293 293 293 292 294 295 297
329 329 328 324 318 314 310 306 306 304 299 300 300 297 299 294 296 298 298 296 295 295 294 293 293 292 292 292 292 291 292 294 296
329 329 327 322 317 313 309 304 305 305 301 297 297 296 296 294 294 295 296 295 294 294 293 292 292 291 291 291 291 291 293 294 295
328 327 324 318 314 310 306 305 304 303 302 300 297 295 295 294 292 292 292 294 294 293 292 291 290 290 290 290 290 292 293 294 294

GFSFLT1_925_thetae_045.txt.gz
Theta_e
329 331 332 332 332 332 330 328 324 318 321 322 328 328 329 330 329 328 330 333 333 331 331 332 332 333 328 329 333 332 332 331 332
328 329 330 330 330 330 329 323 323 324 326 327 328 329 329 330 329 331 333 334 332 335 333 333 334 334 333 332 332 332 332 333 332
329 329 330 330 331 332 332 329 328 328 328 327 326 326 328 329 330 330 330 331 333 332 333 333 332 332 332 331 331 331 332 333 333
330 329 331 332 332 332 332 329 328 327 326 325 326 327 328 327 326 328 329 330 330 332 331 329 328 327 326 326 326 327 327 327 328
325 326 330 332 332 331 330 329 328 325 324 322 322 323 326 326 325 325 329 327 331 329 328 326 326 324 323 323 323 323 323 323 324
327 323 328 330 330 329 329 327 325 321 320 319 319 320 322 322 320 320 323 327 328 326 324 324 323 321 320 319 319 320 320 320 320
330 326 325 327 328 328 327 325 323 319 319 318 316 316 317 317 316 321 321 325 325 322 321 320 320 319 317 316 315 316 316 316 316
333 330 325 327 328 328 327 323 321 321 319 316 313 310 311 312 310 309 309 325 322 319 317 316 315 314 313 312 311 311 312 312 312
331 332 326 326 327 328 327 320 319 317 315 312 309 307 307 307 307 307 312 323 320 317 314 312 311 310 310 310 310 310 310 311 311
331 332 330 325 327 327 326 320 317 313 310 307 305 305 305 305 305 305 306 317 317 314 311 310 308 307 308 308 309 309 309 309 309
332 331 331 327 326 326 322 319 315 311 308 305 304 303 303 303 303 303 304 307 311 310 308 305 305 305 306 307 307 307 308 308 308
331 332 332 327 326 326 322 317 313 309 307 304 303 303 302 302 303 302 302 303 303 303 304 303 303 303 304 305 306 306 306 305 306
329 331 332 324 327 328 321 314 311 308 305 303 303 302 302 301 302 302 301 300 299 299 298 297 298 301 301 302 303 303 303 303 304
328 330 331 325 327 328 320 314 310 308 304 303 301 301 301 301 301 301 300 300 299 298 297 297 296 295 296 299 300 300 301 302 302
327 328 328 326 327 324 315 312 309 307 304 302 301 300 301 301 300 300 300 299 298 297 297 296 295 295 294 295 296 298 298 299 301
328 327 325 325 325 322 315 309 309 304 303 301 301 301 300 301 300 299 299 299 298 297 296 295 294 294 294 293 294 296 296 297 298
329 327 324 325 325 319 313 312 307 303 302 302 299 298 299 299 299 299 299 298 298 297 296 294 294 293 293 293 292 293 295 296 297
331 328 325 325 325 319 315 313 312 304 300 301 302 297 299 296 296 297 298 298 296 295 294 293 293 292 292 291 291 291 292 295 297
330 328 325 325 324 319 316 313 310 306 303 299 299 298 299 296 294 295 296 295 295 294 293 292 292 291 291 290 290 293 294 295 297
330 328 326 323 322 318 316 310 307 306 305 302 296 296 295 294 292 292 292 294 294 293 292 292 291 290 290 289 289 290 292 294 295

GFSFLT1_925_thetae_048.txt.gz
Theta_e
331 333 331 332 334 333 330 328 324 319 327 329 329 328 329 329 328 329 333 333 334 334 333 332 334 334 329 331 333 332 332 331 331
331 333 332 331 331 330 328 324 322 325 329 329 328 329 329 329 329 330 332 333 333 335 334 334 335 334 333 332 333 333 332 332 332
329 330 330 331 331 330 328 327 328 329 329 327 327 328 328 329 329 330 331 330 332 333 332 332 331 329 329 330 330 330 330 331 332
330 330 331 331 331 332 332 332 331 330 327 325 325 327 328 327 327 328 329 329 332 331 329 328 326 325 325 325 325 324 325 326 327
329 328 330 332 332 331 331 330 328 325 324 323 322 325 327 326 326 326 327 330 330 328 327 326 323 323 322 322 322 322 322 322 322
325 325 329 331 331 330 329 330 326 323 321 320 321 324 325 323 322 325 327 329 327 325 324 324 321 320 319 318 318 319 319 318 318
324 323 327 330 330 330 328 327 322 319 318 317 318 318 319 318 319 322 320 327 324 322 321 321 320 318 316 314 314 314 315 314 314
330 327 326 328 329 329 328 326 322 319 318 316 314 313 314 314 312 312 322 325 322 319 317 317 315 314 312 312 312 312 312 312 312
332 331 326 327 328 328 328 323 320 319 317 313 311 308 308 308 307 308 313 323 320 317 314 313 312 311 311 311 311 310 311 311 311
330 332 330 325 327 328 327 322 318 316 313 310 306 305 306 306 306 306 317 321 318 315 312 311 309 308 309 309 309 309 310 310 310
329 330 331 327 326 327 327 321 317 313 310 309 305 304 304 304 304 304 309 314 313 311 309 307 306 306 307 308 307 308 308 308 308
330 331 331 330 327 326 325 320 315 311 309 306 304 303 302 303 303 303 304 307 307 307 305 305 304 303 306 306 306 306 305 305 306
329 331 331 330 329 326 324 320 314 308 307 305 303 302 302 302 303 302 302 302 301 301 300 298 301 302 301 302 303 303 303 303 304
328 329 331 331 330 325 326 321 314 309 307 304 302 302 301 301 301 302 301 300 299 299 298 297 296 295 297 299 300 301 302 301 302
328 328 328 330 330 325 326 321 311 309 306 302 301 301 301 301 300 301 300 300 299 298 297 296 295 295 295 296 297 299 299 299 300
323 325 327 329 330 325 326 318 310 307 303 301 300 300 300 300 300 300 300 299 298 297 297 296 295 294 294 294 293 296 298 298 299
327 325 326 328 329 325 325 318 308 306 303 302 300 298 298 299 299 299 299 299 298 297 297 296 295 294 294 293 292 292 293 297 298
331 328 327 327 327 325 324 316 312 306 301 303 303 297 300 296 297 297 298 298 297 297 296 295 294 293 292 292 291 291 293 296 297
334 332 329 327 326 323 323 317 312 309 304 301 301 300 301 298 295 295 296 296 295 295 294 293 293 292 291 290 290 291 293 295 297
334 333 331 327 326 322 322 317 313 310 310 306 297 296 296 296 295 294 293 294 294 293 293 292 292 291 290 289 289 290 292 293 294

GFSFLT1_925_thetae_051.txt.gz
Theta_e
333 334 333 334 335 335 330 329 324 325 330 330 328 328 328 328 328 332 332 333 335 335 333 334 335 331 332 333 333 331 333 332 331
333 332 332 332 333 331 328 323 321 325 330 329 328 328 329 328 329 331 333 334 334 334 334 334 334 334 333 333 333 334 334 333 332
332 332 331 331 329 328 328 329 331 330 327 327 328 328 328 329 329 330 331 332 332 332 331 330 330 329 329 328 328 329 330 331 331
331 331 331 331 331 330 331 332 331 328 326 325 325 327 328 328 327 329 329 332 332 330 329 327 326 325 325 325 325 325 324 326 327
329 329 330 331 331 330 331 331 329 325 324 324 325 327 327 326 327 328 330 330 328 327 327 325 324 323 322 322 322 322 322 322 321
329 329 330 331 330 330 330 331 326 323 321 322 323 326 326 325 325 326 327 328 326 326 325 323 321 320 319 319 319 319 318 318 317
324 326 329 330 330 330 330 329 323 320 319 320 321 322 321 320 320 325 325 326 324 323 323 321 319 317 315 315 315 314 314 314 314
325 323 328 330 330 329 329 327 321 319 318 316 316 316 316 316 319 318 325 325 322 320 319 317 315 314 313 313 313 313 313 313 313
329 327 324 328 329 329 328 326 323 320 318 315 314 311 310 311 309 309 325 323 320 317 315 314 313 312 312 312 312 312 312 312 311
331 331 328 325 328 328 328 325 320 318 317 313 309 307 307 307 307 311 322 322 319 315 314 312 310 310 311 310 310 310 310 310 310
330 331 332 329 325 327 327 326 320 317 313 311 307 305 305 305 305 306 319 320 315 313 311 308 308 308 309 308 309 309 308 308 308
329 329 329 331 326 326 327 325 318 314 311 308 305 304 303 304 304 305 310 313 311 309 307 307 305 306 306 306 306 306 305 305 306
329 328 329 330 330 326 326 324 318 312 309 308 305 303 303 303 303 304 305 306 306 305 304 302 304 303 302 303 304 303 304 304 304
328 328 329 330 330 329 326 323 318 312 308 306 303 302 302 302 302 303 303 302 301 301 299 297 298 297 298 300 301 301 302 301 302
328 328 328 331 331 330 326 324 318 312 308 304 302 301 301 301 301 302 302 301 299 299 298 297 296 296 295 296 298 299 300 301 301
328 327 328 328 331 330 329 324 316 309 306 302 300 299 300 300 300 300 301 300 299 298 297 297 296 295 295 295 294 294 299 299 300
333 329 326 327 328 328 330 324 314 307 306 303 302 305 301 299 299 300 300 300 299 298 297 297 296 295 295 294 293 292 292 297 299
336 333 330 325 326 327 329 324 320 307 303 304 306 304 309 300 297 298 298 299 298 298 297 296 295 294 294 293 292 292 294 297 299
334 334 331 328 323 325 327 327 321 314 307 301 304 303 303 304 302 295 296 297 297 297 297 296 294 293 292 292 291 291 291 295 297
332 332 332 330 326 325 325 325 318 315 310 307 305 299 298 299 299 299 295 294 295 295 295 293 293 292 291 290 290 289 291 293 294

GFSFLT1_925_thetae_054.txt.gz
Theta_e
338 335 336 337 336 333 332 329 326 330 332 332 328 328 327 329 331 334 335 336 336 335 335 334 332 332 334 333 333 332 331 331 332
336 333 333 334 334 331 329 327 326 325 329 328 328 328 328 330 332 333 334 335 336 336 334 334 335 334 333 333 333 334 335 333 332
334 332 332 333 331 331 330 330 330 329 329 328 328 328 328 331 331 331 332 332 333 332 331 330 330 330 329 329 329 330 331 331 331
332 331 330 331 330 331 332 332 332 328 327 326 327 328 329 330 330 329 331 332 331 330 328 327 327 326 326 326 325 325 326 327 327
330 329 329 331 332 331 331 331 329 326 325 325 327 328 327 330 329 328 331 330 328 328 326 325 324 324 323 323 322 322 322 321 322
329 329 329 329 330 330 330 331 326 323 322 323 325 327 328 328 327 326 328 328 327 327 325 323 322 320 319 319 319 318 318 317 317
329 329 330 330 331 330 330 330 324 322 324 323 323 325 324 324 324 326 327 326 325 324 323 321 319 316 316 316 316 316 315 315 315
328 329 330 331 330 331 331 328 322 320 319 321 321 321 321 321 321 320 326 326 323 321 320 318 316 315 315 314 314 314 314 314 314
328 327 329 331 331 332 331 329 324 319 317 317 319 318 316 315 316 317 326 324 321 318 316 315 314 314 313 313 313 313 313 312 312
331 330 328 329 330 330 330 327 323 319 316 314 315 314 312 312 313 316 325 322 319 316 315 313 312 312 312 311 311 311 311 311 311
331 332 331 330 329 330 329 327 321 317 314 311 311 311 310 311 312 315 321 321 317 315 313 311 310 310 310 310 310 309 308 308 309
332 332 333 332 331 329 328 326 321 316 312 310 308 309 309 309 310 313 316 317 315 313 310 309 308 308 309 308 308 307 306 305 306
331 331 332 332 332 329 327 324 320 316 312 310 308 307 307 308 309 311 312 312 310 309 308 306 305 305 304 305 305 304 304 304 304
330 330 331 331 332 331 327 324 321 317 313 310 308 306 306 307 307 308 309 309 307 307 305 301 304 301 301 302 302 302 302 302 302
331 330 330 330 331 331 328 323 318 317 314 308 306 305 304 304 306 306 307 306 305 304 303 301 300 297 296 297 299 300 301 302 302
333 331 330 330 330 331 329 325 318 314 312 308 307 305 303 303 303 305 305 304 303 303 302 301 299 297 296 295 295 295 298 300 300
333 332 331 330 330 330 330 325 319 316 310 313 313 313 307 303 302 303 303 303 302 301 300 299 298 297 297 296 295 294 293 298 300
333 333 332 330 330 329 329 326 319 317 310 311 317 316 319 307 303 302 302 302 302 300 299 298 297 296 296 295 294 293 293 294 299
332 331 332 331 329 328 328 325 321 319 312 307 306 306 309 310 307 299 300 300 300 299 298 297 296 295 295 295 294 293 291 294 297
330 330 330 330 329 327 326 323 320 321 319 312 306 304 303 302 307 308 299 297 297 297 297 296 295 293 293 293 293 291 290 293 295

GFSFLT1_925_thetae_057.txt.gz
Theta_e
338 337 338 338 339 335 331 328 331 331 330 330 327 327 328 331 333 335 336 337 336 336 335 335 332 334 334 333 333 333 331 332 333
337 335 336 335 335 331 329 324 329 328 331 329 328 328 330 332 332 333 335 336 336 336 335 334 334 333 332 333 333 335 333 332 332
334 334 333 334 333 331 329 328 329 330 329 328 328 328 329 331 330 332 332 333 333 330 331 330 330 330 330 329 329 330 331 331 332
333 332 332 332 332 331 330 332 330 328 328 327 328 327 330 331 329 331 332 332 331 329 327 326 327 326 326 325 325 326 327 327 327
332 331 329 330 330 329 330 331 329 327 326 325 326 327 329 330 328 332 331 329 330 328 326 325 324 324 323 323 322 321 320 321 322
325 329 328 326 326 328 330 330 327 325 324 324 327 327 329 328 327 330 327 328 328 327 325 323 321 321 320 319 318 318 318 317 317
327 330 325 328 330 330 330 330 325 324 326 324 324 326 326 325 325 330 325 327 326 325 323 321 318 317 317 317 317 316 316 316 315
329 331 329 330 330 332 331 330 324 323 324 325 324 323 323 322 322 324 325 326 324 323 321 318 316 316 315 315 315 315 315 314 314
327 329 330 331 331 331 332 332 326 323 320 321 322 322 320 318 319 320 324 325 322 320 318 316 315 315 314 314 314 314 313 313 313
328 328 329 330 331 331 331 331 328 324 320 319 320 319 316 314 315 319 324 324 320 317 316 315 313 314 313 312 313 312 311 311 311
331 330 329 329 330 331 331 330 327 324 320 318 317 316 314 313 313 318 324 321 320 317 315 313 312 312 312 311 311 310 308 308 309
332 332 332 331 330 330 330 329 327 322 319 316 314 314 313 312 312 314 321 320 318 315 313 311 310 310 311 310 309 307 306 306 306
332 332 332 332 332 331 330 329 327 322 318 316 313 312 312 311 311 313 315 318 316 313 311 310 308 309 307 307 307 305 305 304 304
332 332 331 332 332 332 331 329 326 322 319 317 314 311 311 310 310 311 312 313 312 310 309 307 306 306 304 306 304 303 303 303 303
334 332 332 331 331 332 331 329 327 323 320 317 313 311 309 309 309 309 310 310 309 309 307 304 303 302 300 302 301 301 302 302 303
335 334 333 332 332 332 331 330 327 322 320 316 311 310 309 307 307 308 308 308 307 307 305 303 302 301 297 297 297 297 298 299 301
336 335 334 333 332 332 331 331 328 323 319 315 314 316 310 307 306 305 307 307 306 305 304 304 302 300 298 296 296 295 295 295 301
337 336 335 334 333 332 332 331 329 324 318 315 319 321 320 309 306 304 305 305 305 304 303 302 301 300 298 298 297 295 294 294 298
333 335 335 334 334 333 332 332 330 325 320 313 316 318 314 315 307 304 304 304 304 303 302 300 299 298 297 297 297 297 295 293 297
333 331 332 332 333 332 332 331 331 325 322 314 314 312 308 308 313 307 302 301 302 302 301 299 298 297 296 296 296 294 292 292 295

GFSFLT1_925_thetae_060.txt.gz
Theta_e
338 338 335 338 338 333 329 329 331 332 332 327 326 329 331 333 334 335 335 335 337 337 335 334 336 336 336 336 336 332 333 333 330
337 337 337 338 334 331 327 324 328 328 328 328 327 329 331 333 333 333 333 335 335 335 335 333 334 333 333 333 335 335 333 334 332
335 334 335 334 332 329 326 323 325 327 327 327 327 328 330 331 330 329 331 332 331 330 330 330 330 330 328 329 330 330 330 331 331
335 333 333 333 332 329 327 327 327 327 326 327 327 329 330 329 331 331 329 331 330 328 327 327 326 326 326 325 325 326 327 328 328
333 331 331 331 330 328 329 329 327 326 325 325 326 328 329 328 330 331 329 330 329 327 326 325 324 323 323 322 321 321 321 322 322
325 330 329 329 327 325 329 328 326 325 324 324 325 326 329 328 330 330 327 328 329 327 324 323 322 320 320 319 318 318 318 318 318
326 327 329 324 325 329 329 329 325 323 323 324 325 327 326 326 327 328 325 326 327 325 323 320 319 318 318 318 317 317 317 316 316
328 329 327 325 330 330 330 330 327 325 326 325 323 325 324 323 323 325 323 325 326 324 321 318 317 317 317 316 316 315 314 315 315
329 330 327 327 330 331 331 330 328 323 322 324 324 322 322 320 321 321 319 323 324 321 319 317 316 316 316 315 315 314 314 314 313
328 329 329 330 331 329 332 332 329 324 322 320 321 321 320 316 316 318 317 321 322 320 318 316 315 315 314 314 313 312 312 312 312
329 327 328 330 331 331 331 331 330 327 323 320 319 319 317 314 314 317 320 322 322 318 317 315 314 314 313 313 312 310 310 309 310
331 330 329 328 329 330 331 331 330 327 323 320 317 317 315 313 313 316 321 321 320 318 317 314 313 313 312 312 311 308 307 307 306
333 332 331 331 330 329 330 330 329 326 322 318 316 315 314 312 312 313 320 320 318 318 315 313 312 311 312 310 309 307 305 303 303
334 333 332 332 333 331 330 330 329 327 323 319 316 313 312 312 311 312 314 319 317 315 314 310 310 310 309 309 308 306 304 301 301
335 333 332 332 332 333 332 331 329 328 324 319 316 313 311 311 310 310 312 313 314 313 311 309 307 307 306 308 306 305 304 303 301
336 335 332 332 331 331 332 331 330 328 324 321 316 312 311 310 310 309 310 311 311 310 309 308 306 304 303 304 304 303 302 303 300
338 336 334 333 332 331 331 332 330 329 325 319 312 309 310 309 308 308 308 309 310 309 308 306 305 302 301 300 301 299 298 298 300
339 338 336 334 333 332 331 332 330 328 324 321 314 314 313 307 308 307 307 308 308 308 307 306 304 302 301 299 297 296 295 298 301
334 334 337 336 335 334 333 332 331 329 323 320 317 319 316 309 305 306 306 306 307 306 306 305 304 303 300 299 298 297 295 295 298
334 333 330 333 334 334 334 333 332 330 326 319 316 315 316 311 308 303 303 304 305 305 305 303 303 301 300 298 298 297 297 296 298

GFSFLT1_925_thetae_063.txt.gz
Theta_e
339 337 335 338 336 329 328 324 327 326 324 325 330 331 332 335 333 334 335 336 337 336 336 335 336 336 335 335 334 334 333 331 331
338 335 338 337 333 329 324 322 324 326 326 326 330 330 331 334 332 334 335 335 336 336 333 333 333 333 333 333 334 335 334 333 333
337 337 337 334 330 329 325 323 325 325 326 325 330 330 330 332 329 330 330 331 331 331 330 329 330 329 329 330 330 331 331 332 332
336 335 334 333 331 328 324 322 324 324 325 325 327 330 329 331 330 329 329 330 330 329 328 327 327 326 326 325 327 328 328 328 328
332 332 332 333 331 328 325 322 324 325 325 325 328 329 329 332 330 330 329 330 329 327 326 325 324 324 323 322 322 322 323 323 324
329 330 331 330 329 327 326 324 324 325 324 323 326 329 328 329 330 329 327 329 328 326 324 323 322 321 320 319 319 319 319 319 319
321 328 328 329 327 326 327 326 325 323 322 324 325 328 326 328 328 328 325 328 327 325 322 320 319 319 319 318 318 318 317 317 317
325 325 328 324 324 328 329 329 325 324 324 323 325 326 325 327 325 325 325 326 327 325 320 319 318 318 318 317 317 316 316 316 315
329 328 328 321 325 327 329 329 327 324 324 325 323 323 322 321 323 322 321 320 326 324 320 318 318 317 317 317 316 315 315 315 314
328 328 328 323 324 328 328 330 329 323 322 323 323 323 322 321 319 320 319 318 322 322 320 318 317 317 316 316 314 314 314 314 313
328 328 328 328 328 330 329 330 331 326 324 322 320 320 321 319 315 316 316 317 319 320 320 318 317 316 315 315 313 313 312 312 312
330 329 327 328 329 330 331 330 332 330 325 324 320 319 319 317 314 314 315 319 321 320 319 318 316 316 315 315 312 311 310 309 309
333 330 329 328 328 330 331 331 331 329 327 324 321 318 317 315 313 313 315 319 321 319 319 317 315 315 315 314 313 310 308 307 307
335 333 332 330 330 329 328 329 330 329 328 323 320 318 316 315 312 312 313 318 319 319 317 316 313 313 314 314 312 310 307 305 304
336 335 334 332 331 332 330 329 329 329 328 323 319 318 315 314 313 311 311 314 318 318 316 316 312 311 313 312 312 310 307 305 304
336 335 334 333 332 332 332 331 330 329 329 324 319 316 315 312 312 312 310 312 314 317 315 313 311 309 308 309 311 309 308 306 305
339 336 335 334 332 332 331 331 331 330 328 323 313 309 310 310 310 311 310 310 312 313 313 312 310 308 306 306 308 307 306 305 305
331 336 336 335 334 332 331 331 331 329 328 325 319 310 310 307 311 310 309 309 309 311 311 310 309 308 306 305 303 304 304 304 303
335 334 334 332 333 333 333 332 331 330 327 324 320 318 315 308 308 307 308 308 308 309 310 310 308 306 305 302 301 300 298 299 303
334 334 333 332 331 331 333 333 332 330 329 325 323 317 316 312 307 308 306 306 306 307 308 308 307 305 304 302 300 298 297 300 301

GFSFLT1_925_thetae_066.txt.gz
Theta_e
338 337 339 339 331 329 322 319 321 321 327 329 330 334 334 333 333 335 336 335 337 336 334 337 336 336 335 334 334 334 332 330 334
338 337 338 336 330 329 318 318 322 323 326 329 330 331 333 333 334 334 336 337 337 336 333 332 332 332 334 335 335 334 333 333 333
340 337 338 335 330 328 319 318 323 324 326 329 330 330 332 331 330 330 331 332 333 332 330 330 329 330 331 331 331 332 334 333 332
338 337 337 333 330 328 320 319 322 324 325 328 329 330 331 329 328 328 328 330 331 329 329 328 328 327 326 328 328 329 329 329 328
335 335 334 333 331 328 323 321 322 323 324 327 329 328 329 330 329 329 329 330 329 328 327 326 325 324 324 324 324 325 326 326 326
330 332 333 333 331 329 326 323 324 324 324 325 329 328 329 330 329 329 328 329 329 327 325 324 324 322 321 321 321 321 321 321 321
326 329 331 330 330 328 328 325 325 324 323 323 327 328 327 328 329 328 327 328 328 326 323 322 321 320 320 320 319 319 319 318 318
325 328 329 328 328 325 329 327 325 323 322 323 325 327 326 327 328 327 326 327 328 326 322 320 320 319 319 319 318 318 318 317 317
327 325 325 325 324 323 327 327 326 323 324 322 324 326 324 325 326 325 324 323 327 326 321 320 319 319 319 318 317 316 317 316 316
328 328 327 327 321 322 325 328 328 326 324 324 322 323 323 321 322 323 322 321 321 325 322 320 319 318 318 318 316 316 316 316 315
329 328 328 328 325 320 325 327 329 329 323 322 323 323 322 321 320 319 320 319 318 320 323 320 319 318 318 317 316 315 315 315 314
332 328 328 328 327 327 328 329 329 331 327 324 321 320 320 321 319 317 317 316 317 318 321 321 319 318 318 318 315 314 314 313 313
335 329 329 329 327 328 329 330 330 330 331 330 324 322 319 319 318 316 315 316 316 319 320 320 319 318 318 317 316 313 312 311 311
336 332 330 330 328 327 328 329 330 330 330 330 324 323 321 318 317 315 313 315 317 317 319 319 318 317 318 317 316 314 311 309 309
335 335 334 332 330 329 328 328 328 329 329 328 326 324 321 318 316 315 313 313 315 318 318 318 317 315 315 316 316 315 311 308 307
336 335 335 334 333 332 331 330 328 328 328 327 324 321 318 316 315 314 314 312 312 316 318 318 317 316 313 313 315 314 313 309 307
336 335 335 335 334 333 332 331 331 330 328 325 315 316 317 317 317 315 312 312 311 311 317 318 317 315 313 310 312 312 312 311 308
336 334 331 333 335 333 332 331 330 329 328 327 325 313 316 309 315 316 313 311 311 310 311 316 317 315 312 310 309 309 310 309 309
334 334 334 334 334 332 332 332 330 329 327 325 324 323 316 311 312 311 311 309 309 309 309 311 313 314 312 309 307 306 308 307 307
332 335 334 332 331 331 331 330 331 331 328 327 326 322 317 312 311 320 310 308 310 308 308 308 310 311 310 309 307 305 304 304 303

GFSFLT1_925_thetae_069.txt.gz
Theta_e
340 339 341 335 329 325 316 317 323 329 329 331 333 332 332 332 335 335 332 335 337 337 337 335 335 336 334 334 334 332 327 333 334
338 339 339 334 329 326 315 319 322 328 329 330 331 332 333 334 335 335 335 336 336 334 333 333 332 334 335 334 334 333 333 334 333
339 338 338 334 330 328 316 321 323 326 329 329 329 332 332 334 333 333 333 334 334 332 331 330 329 331 333 332 333 333 334 333 331
338 338 337 334 331 329 319 320 324 325 327 329 329 330 331 329 328 327 327 328 330 329 329 328 328 328 328 329 329 329 330 330 329
337 337 336 333 331 330 325 321 323 324 325 327 328 329 330 329 328 328 328 328 330 329 327 327 326 325 325 326 326 327 327 327 326
334 334 334 333 332 330 326 324 325 324 325 326 327 328 329 329 329 328 328 329 329 327 326 325 324 323 322 323 323 323 323 324 323
328 331 332 332 331 330 328 323 323 324 323 324 326 327 329 329 329 329 328 329 329 327 324 323 322 321 321 320 320 321 320 320 320
323 326 328 329 329 329 330 328 324 324 323 322 323 327 327 326 328 329 327 327 330 327 324 322 321 320 320 320 319 319 318 318 318
320 321 324 325 327 328 327 327 325 324 322 321 323 325 326 325 325 327 326 326 329 328 324 322 320 320 320 319 318 318 318 317 317
326 326 324 325 325 324 323 325 326 326 323 324 322 323 325 323 323 324 324 324 324 327 325 322 320 320 320 319 318 317 317 317 316
328 327 328 327 327 325 321 323 325 327 327 324 323 323 322 323 322 321 322 322 322 321 325 323 321 320 320 319 318 317 317 316 316
333 332 329 328 328 327 324 323 326 328 329 329 323 321 322 322 321 321 320 320 319 320 322 324 322 321 320 319 318 316 316 316 315
336 334 334 329 328 328 327 327 328 329 329 330 330 325 323 320 319 320 319 318 317 317 318 320 323 321 320 319 319 317 315 315 314
336 336 335 334 329 328 328 327 328 329 330 330 330 331 329 324 320 319 318 317 316 316 316 317 319 320 320 320 319 318 314 313 312
336 337 336 335 332 328 328 327 327 328 329 329 329 329 330 326 322 320 318 317 315 315 316 316 319 319 318 319 319 319 316 313 311
335 335 334 333 330 330 329 328 327 327 327 327 326 327 327 325 324 320 318 316 315 314 315 318 318 318 318 316 318 318 318 314 311
337 336 335 334 334 333 333 330 328 328 327 325 319 321 323 324 325 322 319 317 315 313 313 315 318 319 318 317 315 315 317 316 312
337 336 335 335 334 332 333 332 330 328 329 328 326 318 318 312 322 322 322 319 316 313 311 311 314 318 318 317 315 313 314 315 314
332 335 335 334 334 333 332 333 332 330 327 327 325 325 321 317 319 316 315 312 311 312 311 310 310 311 317 318 315 313 311 312 312
319 325 332 334 334 332 331 331 331 330 329 327 326 325 321 318 313 321 317 317 317 317 313 309 309 309 311 312 314 312 310 310 311

GFSFLT1_925_thetae_072.txt.gz
Theta_e
340 341 338 331 328 316 320 324 328 329 330 331 331 331 331 332 335 331 334 336 337 336 334 334 335 333 333 334 331 325 331 333 334
338 341 339 332 329 318 321 322 327 329 330 330 332 332 332 334 333 334 335 337 335 333 332 332 333 334 334 333 333 333 334 333 334
340 340 338 333 330 324 321 322 325 328 329 329 330 331 333 334 334 335 335 334 334 332 330 328 329 331 332 332 332 332 333 332 331
338 338 337 333 331 330 320 325 325 326 328 328 329 331 331 331 328 328 328 328 330 327 327 327 326 325 328 328 328 328 330 330 329
336 337 336 334 331 330 324 319 325 326 327 327 328 328 330 329 328 327 327 327 329 327 325 327 326 324 322 323 325 325 325 326 326
336 336 336 334 332 331 327 319 321 323 325 326 327 328 328 329 328 328 328 328 329 326 324 324 324 322 322 321 323 324 323 324 324
332 334 333 333 332 331 328 324 321 323 324 324 325 327 328 329 328 328 328 329 330 327 323 321 322 321 321 321 321 321 321 321 321
326 327 329 330 330 329 328 327 323 323 324 323 323 325 327 327 326 328 328 327 331 329 326 323 321 321 320 320 320 319 319 319 319
321 322 323 325 326 326 327 327 325 323 323 322 321 322 325 326 325 326 327 326 329 330 326 323 321 321 320 320 319 319 318 318 318
324 322 322 322 323 324 325 325 323 323 324 323 323 322 323 325 324 323 325 325 325 328 328 325 323 321 321 320 319 318 318 317 317
331 327 327 326 326 326 325 323 321 322 325 326 325 324 323 322 322 322 322 322 323 323 327 326 324 322 321 320 319 318 318 317 317
333 332 329 328 328 328 327 326 323 323 325 326 328 328 323 321 322 322 321 321 321 321 322 325 325 323 322 321 320 318 317 317 316
335 335 334 333 333 329 328 328 326 325 326 328 329 329 329 326 325 323 321 320 320 319 319 319 323 324 323 322 321 320 317 317 316
333 334 336 336 334 333 329 328 328 327 327 328 328 329 329 330 330 328 324 320 319 318 318 318 318 320 322 323 322 321 319 316 315
334 333 333 335 336 334 333 329 328 327 327 327 327 328 328 329 328 329 328 325 321 318 317 316 317 318 320 321 322 321 321 317 314
336 334 334 334 335 335 333 330 327 326 326 326 326 327 327 327 327 328 327 326 324 320 317 315 316 317 318 319 320 321 320 320 316
337 337 337 335 334 333 332 330 329 328 327 325 322 322 325 326 327 327 326 325 321 318 315 313 314 315 317 319 319 318 319 319 319
336 337 337 336 335 334 334 332 331 328 328 327 326 323 322 316 324 326 325 324 321 318 316 315 314 313 314 317 319 318 316 317 318
325 329 333 335 335 334 333 333 332 330 327 327 327 325 323 320 322 320 323 322 322 321 322 314 312 311 311 311 313 318 317 315 314
315 319 322 327 331 332 333 332 330 330 328 327 327 325 323 321 316 322 319 319 320 320 319 318 315 314 311 310 310 313 314 315 314

GFSFLT1_925_thetae_075.txt.gz
Theta_e
341 340 332 329 318 320 324 326 328 330 331 331 331 331 331 334 332 334 335 338 337 336 333 336 333 335 335 334 329 326 333 333 334
340 340 334 330 322 322 322 327 328 330 330 331 331 331 333 333 333 334 336 337 334 334 331 327 334 334 334 334 333 334 333 334 333
341 340 335 331 327 320 326 328 329 329 329 329 331 331 333 334 334 335 335 333 333 331 328 328 329 330 332 333 332 332 332 331 332
338 339 336 332 330 323 322 324 325 328 328 328 330 331 331 331 328 328 328 328 331 328 324 325 324 324 329 329 329 329 329 329 329
337 336 336 333 331 330 322 324 325 325 327 328 328 328 329 329 328 327 327 327 328 325 322 323 322 317 317 320 323 324 325 325 325
336 336 336 334 332 331 328 322 324 325 324 325 327 327 328 328 328 327 327 328 329 326 322 321 322 319 319 318 320 320 321 323 323
334 335 334 334 332 331 330 326 323 323 324 324 324 326 327 328 328 327 327 328 331 328 325 320 318 319 318 320 321 321 321 322 322
328 329 330 332 331 330 329 328 326 323 324 323 323 322 325 327 327 326 328 328 331 331 327 323 320 319 320 320 320 320 319 319 319
321 322 323 325 327 327 327 327 326 325 323 323 322 321 322 324 326 325 326 327 327 331 329 325 322 322 321 320 320 319 318 318 318
326 322 320 320 322 323 324 324 324 323 323 324 324 322 322 322 324 325 323 324 325 326 330 328 325 323 322 321 320 319 319 318 318
330 329 325 325 325 326 326 326 324 321 321 323 325 326 325 323 323 322 322 322 323 323 324 328 327 325 323 322 321 319 319 318 318
330 332 332 328 327 327 328 328 327 325 324 323 325 326 327 328 324 321 322 322 321 321 322 327 327 326 325 323 323 321 319 318 318
332 332 334 334 332 332 330 328 328 328 327 326 326 327 328 329 329 329 327 324 323 321 320 320 323 326 325 324 323 322 320 318 318
333 333 333 334 335 335 333 333 330 328 328 328 327 327 327 328 328 329 329 329 329 326 323 320 319 320 323 324 324 323 322 320 318
333 333 333 333 332 333 335 335 333 332 329 327 327 327 328 328 328 328 328 328 328 327 324 320 318 318 319 322 323 323 323 322 319
336 336 335 334 333 334 334 334 332 329 329 325 327 327 328 327 327 327 327 327 326 325 323 320 317 316 316 318 319 322 322 322 321
337 337 337 337 336 335 334 331 328 327 329 327 324 328 327 326 326 326 325 326 325 324 322 319 317 315 314 315 317 318 321 321 321
336 336 336 336 335 335 335 333 331 328 329 328 326 328 328 319 325 324 325 324 323 322 320 318 318 316 313 312 314 318 319 320 320
322 324 327 330 332 332 332 333 332 330 328 327 326 325 323 324 324 322 323 323 322 321 320 319 318 317 314 311 311 312 315 319 319
314 315 317 319 322 328 328 331 331 330 327 326 326 326 323 321 320 322 321 320 319 318 317 317 318 317 315 313 312 310 310 313 318

GFSFLT1_925_thetae_078.txt.gz
Theta_e
341 333 330 322 325 331 334 331 330 330 331 332 331 331 333 334 336 336 338 336 336 335 329 336 335 336 334 334 329 335 334 335 335
342 336 331 323 322 327 331 331 330 330 330 331 331 333 335 336 336 338 336 336 335 333 324 325 333 333 335 334 334 334 334 334 333
342 338 332 329 320 322 323 326 328 328 328 330 331 333 334 335 335 335 333 329 332 330 327 324 322 327 332 333 333 332 332 332 331
339 339 334 331 327 321 324 325 326 328 328 328 330 329 330 331 330 329 331 327 331 328 325 323 320 322 328 329 329 329 330 329 327
337 337 335 333 331 327 323 326 326 326 328 328 328 328 328 331 331 330 331 327 329 325 321 320 320 314 310 316 323 325 325 326 325
338 338 336 334 332 331 327 323 325 325 325 325 327 327 331 331 331 330 328 327 329 327 323 319 317 315 315 314 312 312 316 320 320
337 337 335 334 333 332 330 328 324 324 328 327 325 328 330 330 331 330 327 327 331 330 327 323 319 317 315 316 318 318 318 321 321
334 334 334 335 334 334 333 334 332 330 328 327 326 326 326 327 329 329 326 327 328 332 330 327 322 319 318 318 319 319 318 320 319
329 329 329 330 330 332 332 331 331 331 329 326 325 325 324 325 326 327 326 325 326 329 332 329 326 322 322 321 321 320 319 319 318
330 329 328 327 327 328 329 330 329 328 327 327 326 325 325 325 325 325 325 323 323 325 327 331 329 326 324 323 322 320 319 318 318
331 332 330 329 329 330 331 331 330 329 327 326 327 328 327 327 326 325 324 323 322 322 323 328 329 329 326 324 323 322 320 319 318
332 333 333 332 330 330 331 331 331 331 330 330 329 329 330 329 329 327 325 325 325 323 321 321 328 329 328 326 324 323 321 320 319
335 334 334 335 334 333 333 333 332 332 332 332 331 331 331 330 330 329 328 327 326 326 326 323 321 325 327 327 325 325 323 321 319
336 336 335 335 335 335 334 334 334 334 334 332 331 331 331 331 330 330 330 329 327 327 327 326 324 320 321 325 326 325 325 323 320
336 336 336 336 335 335 335 335 335 334 334 333 331 331 331 331 330 329 328 328 328 326 325 325 325 323 320 319 324 325 325 324 323
335 337 337 337 336 335 335 335 335 334 333 332 332 332 331 329 329 328 327 327 326 323 323 323 323 323 321 319 318 322 324 324 324
338 338 338 338 337 336 335 334 333 332 331 332 332 332 327 326 327 326 325 324 323 321 320 320 320 320 320 320 319 319 321 323 323
335 335 335 334 333 334 334 333 332 332 332 330 331 331 328 327 326 325 323 322 320 321 319 319 318 318 318 317 316 316 316 319 322
324 325 326 327 329 331 330 330 330 330 331 329 329 328 326 327 326 324 323 322 322 321 319 318 318 317 317 316 316 314 312 312 316
313 314 315 316 319 322 324 326 328 329 328 328 327 326 326 323 324 325 324 322 320 321 319 317 317 315 314 314 313 313 313 312 315

GFSFLT1_925_thetae_081.txt.gz
Theta_e
334 329 319 322 331 335 333 334 332 332 334 331 331 333 335 336 336 338 335 335 335 331 329 336 335 335 336 334 335 335 335 335 334
337 331 323 319 324 327 328 330 329 329 331 331 333 336 336 336 337 335 334 333 332 329 327 327 331 333 334 335 334 334 334 334 333
339 334 330 321 325 328 329 328 328 328 329 330 332 334 335 334 333 332 332 329 331 328 321 313 311 318 331 331 333 333 333 332 331
339 337 332 329 323 325 325 326 327 328 328 329 329 329 330 331 331 330 332 327 330 325 318 315 311 311 319 328 328 328 328 329 329
337 337 335 331 330 323 323 324 324 326 327 327 327 327 328 333 331 331 329 326 327 325 321 317 314 311 308 310 319 323 324 325 325
337 337 336 333 331 331 326 322 323 323 324 324 325 326 332 331 331 331 329 327 328 327 325 321 318 314 312 312 316 316 319 321 321
339 337 335 334 333 332 331 328 323 321 330 329 326 328 329 330 331 331 329 326 328 331 328 326 321 318 317 316 316 317 318 321 320
335 336 335 335 334 335 334 334 333 332 329 328 327 326 326 327 329 330 329 325 326 332 331 328 326 322 319 319 320 318 316 319 318
330 330 331 331 332 332 332 332 332 332 331 328 326 326 325 325 326 327 327 325 324 325 332 331 329 326 322 322 322 320 318 318 318
330 330 329 328 327 328 329 330 329 329 328 327 327 326 326 326 326 326 326 324 323 322 324 330 331 329 327 325 324 322 320 320 319
331 333 332 330 330 330 332 333 332 331 329 328 327 328 329 329 328 327 327 325 324 322 323 323 329 331 330 327 325 323 322 320 320
333 335 335 334 332 332 332 333 333 333 333 332 331 330 330 331 331 330 329 327 327 327 326 324 323 327 330 329 327 326 324 322 321
337 336 336 337 336 335 334 334 334 334 334 334 334 333 332 332 332 332 331 330 328 328 327 327 326 323 329 329 329 327 326 324 322
338 338 337 337 337 337 337 336 336 336 335 335 335 333 333 333 333 332 332 331 331 330 328 328 326 326 323 327 328 328 327 326 325
339 339 338 338 337 337 337 336 336 336 336 335 335 333 333 332 332 332 331 329 328 329 328 327 327 326 325 323 325 326 327 326 325
337 338 338 338 338 337 337 336 335 335 335 334 334 333 333 332 331 330 329 328 327 327 325 324 324 324 323 322 321 320 326 326 325
338 338 338 337 337 337 336 336 335 334 334 333 333 333 330 327 326 328 327 326 325 323 322 322 321 321 321 320 319 319 319 322 325
337 336 335 335 334 334 333 333 333 333 332 332 332 332 330 327 327 327 326 324 323 322 321 320 320 319 319 319 319 318 317 317 316
327 328 327 328 329 329 329 329 329 330 331 331 330 329 329 330 329 325 324 323 323 323 321 319 318 318 316 316 316 316 315 314 313
314 314 315 317 320 323 323 324 325 327 328 329 329 327 327 327 325 326 323 324 323 321 320 319 317 315 312 312 312 312 312 312 312

GFSFLT1_925_thetae_084.txt.gz
Theta_e
326 319 325 331 332 330 330 330 331 332 331 332 332 335 335 337 336 334 333 330 331 329 329 332 333 335 337 335 335 335 335 334 333
330 319 321 325 326 327 328 329 329 331 331 333 335 336 336 337 335 333 329 329 329 328 323 318 326 330 333 336 334 334 333 333 332
333 328 320 321 324 326 327 328 327 328 329 332 335 335 333 333 332 331 328 326 329 325 317 313 314 322 330 330 330 331 332 331 330
337 332 328 321 322 323 325 325 327 326 327 327 328 330 331 331 329 332 330 326 328 322 317 314 311 310 311 320 326 326 326 328 327
337 336 331 329 324 320 322 323 323 325 326 325 325 324 331 332 331 331 329 325 326 324 321 318 315 311 309 309 311 316 320 322 324
335 337 334 331 330 329 325 320 320 321 324 324 322 326 331 331 331 331 330 325 326 326 326 323 319 316 313 310 311 312 315 319 320
338 336 334 333 332 331 329 328 324 321 329 329 327 327 328 329 330 331 330 327 325 329 328 327 324 320 317 316 315 316 318 319 320
338 335 330 330 333 332 334 333 333 332 330 328 327 327 326 326 327 329 329 327 324 326 332 329 327 325 321 319 319 317 315 316 315
331 334 332 332 334 332 334 333 333 332 331 329 327 326 325 325 325 326 327 326 324 323 325 331 329 327 325 322 321 321 319 316 316
329 329 329 328 328 329 329 330 329 329 329 328 327 326 326 326 326 325 326 326 325 322 322 324 331 331 329 326 324 323 321 320 318
331 331 331 329 328 328 330 331 332 331 330 329 327 327 327 328 328 328 327 327 326 325 324 323 327 331 332 330 327 325 323 322 320
331 333 334 333 330 331 332 333 333 333 333 332 332 331 330 330 330 330 330 330 328 327 327 327 325 328 331 331 330 328 325 324 322
335 334 335 336 335 333 333 333 333 333 333 333 333 333 332 332 332 332 332 331 330 329 328 328 328 327 326 330 330 329 328 327 325
337 337 336 336 336 337 336 336 336 335 335 335 334 334 334 333 333 332 332 332 331 330 328 329 328 327 326 326 327 328 328 327 327
339 338 338 338 337 336 336 336 335 335 335 335 334 334 334 333 333 332 332 331 329 328 329 328 326 326 325 324 323 326 328 327 326
338 338 338 337 337 336 336 335 335 335 335 334 334 333 333 332 333 332 330 328 327 327 326 323 323 323 322 321 322 321 322 324 327
338 337 336 337 337 336 336 335 334 333 333 333 332 331 328 328 328 329 327 327 325 324 322 321 320 320 320 319 319 319 318 318 319
337 336 336 335 335 334 333 333 333 332 332 331 331 327 326 326 326 326 326 324 323 322 322 321 319 318 318 318 318 317 317 316 316
331 331 331 331 329 329 329 329 328 328 329 330 329 330 329 325 325 325 325 323 323 323 321 319 317 317 316 314 313 313 312 312 314
315 315 315 316 318 320 322 322 323 324 326 326 325 328 328 327 326 325 324 323 323 320 320 319 319 314 313 311 310 310 310 310 312

GFSFLT1_925_thetae_087.txt.gz
Theta_e
332 334 334 332 334 334 334 334 331 330 331 333 334 335 337 335 333 332 322 327 329 329 326 332 335 336 337 335 335 334 334 334 333
317 322 325 326 329 329 328 329 329 332 332 335 335 335 334 334 333 330 321 327 329 327 323 324 330 334 334 335 336 335 333 332 331
319 319 322 325 327 327 326 325 327 329 334 335 335 332 332 332 330 331 324 324 327 325 321 321 321 326 329 329 329 330 331 330 329
329 322 320 323 323 324 324 325 324 325 327 332 333 330 330 329 330 331 327 324 325 321 318 318 314 310 309 313 319 323 325 326 325
335 330 326 321 319 320 321 321 322 324 324 324 323 327 332 331 330 330 330 324 324 324 322 319 316 313 309 308 309 312 318 322 323
335 333 330 329 328 325 321 319 319 320 324 323 321 329 330 330 331 331 330 328 324 325 326 324 321 318 315 313 311 314 320 321 321
335 335 333 332 330 329 327 326 323 323 328 328 326 327 327 327 329 330 330 329 325 324 327 327 325 323 319 317 317 314 316 318 320
338 334 331 330 329 328 333 332 332 331 330 328 327 326 326 325 326 328 328 328 326 323 327 328 328 326 324 320 319 318 315 315 315
336 332 331 331 332 332 333 332 332 332 331 330 327 326 325 325 325 325 325 326 326 324 322 330 330 328 327 325 323 321 319 317 315
331 331 332 329 329 331 331 331 329 329 329 328 328 327 326 326 325 325 325 325 326 325 324 323 332 332 330 328 326 325 323 321 319
329 329 329 328 327 327 328 329 330 331 330 329 328 327 326 327 328 328 328 328 328 327 326 326 325 330 331 331 330 327 325 324 322
331 331 332 331 329 329 330 331 332 333 332 332 332 332 331 330 329 330 330 330 330 330 329 328 328 328 327 328 331 330 328 326 324
332 331 334 334 333 331 331 331 332 333 333 333 333 333 333 332 332 332 332 331 331 331 330 329 329 328 327 327 329 328 328 328 327
335 335 335 335 336 335 335 335 335 335 335 335 334 334 333 333 334 333 332 332 331 331 331 328 329 327 327 326 327 328 328 326 327
338 337 337 337 336 335 336 335 335 335 335 334 333 333 333 333 333 332 332 332 331 329 328 328 326 325 324 323 323 323 322 324 327
338 338 337 337 337 337 336 336 335 335 335 334 332 330 330 329 329 329 332 331 328 326 325 323 322 322 321 320 320 320 320 319 320
338 338 337 335 335 336 336 336 334 333 331 331 330 328 327 327 327 327 328 325 324 323 322 321 320 320 319 319 319 318 318 318 318
336 336 336 335 334 334 334 333 332 332 329 329 330 327 324 324 326 326 325 324 324 322 322 321 319 318 318 317 315 314 312 312 315
337 336 335 334 333 331 330 329 328 327 327 326 328 330 329 326 323 324 324 323 323 322 321 318 317 317 316 313 312 312 311 310 312
324 320 318 318 318 319 321 321 320 322 323 324 324 323 323 327 324 321 323 323 320 319 318 316 315 313 313 312 310 310 309 309 310

GFSFLT1_925_thetae_090.txt.gz
Theta_e
335 335 334 335 336 334 334 330 330 333 334 334 334 336 334 332 331 320 323 327 328 328 332 332 335 335 335 335 335 334 333 332 332
334 332 330 330 332 334 331 330 330 332 334 335 334 333 334 332 330 324 321 326 328 326 326 330 331 333 333 333 333 333 332 330 329
328 323 326 327 326 326 327 328 331 332 334 335 332 332 333 331 330 329 322 323 327 325 323 322 322 327 329 329 329 330 329 328 327
320 323 325 326 326 324 323 324 327 333 334 334 331 330 329 329 330 329 327 323 323 322 319 317 313 312 314 313 317 320 323 325 325
323 321 323 323 322 322 323 323 323 323 325 327 326 330 330 330 330 330 329 327 323 324 322 320 318 315 312 310 310 315 320 322 322
331 327 325 322 320 320 320 320 320 321 321 321 322 328 330 329 330 330 330 329 325 323 325 324 322 320 317 316 314 313 317 321 320
334 332 330 329 328 328 326 324 319 321 327 327 326 327 327 327 327 330 330 329 327 324 324 326 325 324 321 319 318 316 315 315 315
336 333 331 330 329 328 330 330 328 328 329 327 327 326 326 325 325 325 328 328 327 326 326 326 327 327 325 323 321 319 317 315 313
336 334 330 328 331 330 333 332 332 332 331 329 328 326 325 325 324 324 325 325 325 325 325 327 329 329 328 326 325 324 321 318 316
333 332 331 330 330 331 331 330 329 329 330 329 329 328 326 326 326 325 325 325 325 326 326 325 328 332 331 330 328 326 325 323 321
330 331 330 329 328 327 327 328 329 329 330 329 328 328 327 327 327 328 328 327 327 328 329 328 327 328 329 331 330 329 328 325 323
330 329 329 329 328 327 327 329 331 332 332 332 332 332 332 332 331 329 330 330 330 329 330 329 329 328 326 326 329 328 328 328 326
330 330 330 332 332 330 330 330 331 331 332 333 333 333 331 331 332 332 332 332 331 331 330 329 329 327 327 327 329 329 328 327 327
332 331 331 334 335 334 333 333 334 334 334 334 334 333 333 332 332 333 333 332 332 330 330 329 328 328 327 326 326 327 326 325 327
335 335 335 336 335 334 335 335 335 335 335 334 333 331 331 331 330 329 330 331 332 331 330 328 328 325 324 323 322 322 321 320 321
337 337 337 337 336 336 336 335 335 335 334 332 330 329 328 327 327 327 329 329 330 328 327 324 323 322 321 320 319 319 318 318 320
338 337 338 337 336 335 336 335 335 333 330 330 329 326 326 327 326 326 326 327 325 324 322 321 321 320 319 318 317 316 314 313 314
338 338 337 336 334 333 332 332 332 331 329 328 328 328 324 323 325 325 324 323 322 321 320 319 319 318 318 317 316 314 313 312 312
336 335 335 335 333 332 332 331 330 328 327 327 326 326 329 327 324 323 323 321 321 320 318 317 317 316 314 313 312 312 310 311 312
330 334 334 331 329 327 323 322 322 322 322 323 323 322 322 322 323 323 321 320 318 316 315 315 314 313 311 309 309 311 309 310 311

GFSFLT1_925_thetae_093.txt.gz
Theta_e
336 335 335 335 335 329 329 332 332 334 334 335 335 333 332 329 321 320 322 327 328 329 332 332 333 333 334 335 336 334 331 330 329
335 335 336 334 332 330 329 332 332 333 334 334 333 333 332 330 327 321 322 327 328 327 327 330 330 330 330 330 330 329 329 328 328
333 335 335 335 337 332 330 330 332 333 334 332 332 333 331 329 329 325 323 324 327 324 317 315 321 325 326 327 326 327 327 327 326
333 332 329 327 325 327 328 331 331 334 334 331 329 330 329 328 329 328 327 324 324 321 320 318 316 314 310 311 311 313 323 324 323
325 326 326 324 324 323 324 325 330 332 332 331 327 328 330 330 330 329 328 327 324 323 323 322 320 318 316 314 312 313 318 321 321
322 322 323 322 321 321 322 322 323 323 323 323 323 326 329 329 329 330 329 329 328 324 324 324 323 322 319 317 317 315 314 315 314
327 326 324 323 323 322 321 320 319 321 325 326 324 328 327 326 326 328 329 329 330 327 324 325 325 325 324 322 320 318 317 316 314
332 331 330 329 328 327 328 327 324 325 327 327 326 325 325 325 324 325 326 328 329 330 327 326 326 327 326 325 324 323 320 317 315
334 332 329 329 328 327 331 331 331 331 330 329 328 326 326 325 324 324 324 325 326 327 328 328 328 328 329 329 327 326 324 322 319
335 335 331 329 330 330 331 330 329 329 329 329 329 328 327 326 325 326 326 325 325 325 326 327 328 329 330 331 329 328 328 325 323
334 332 331 330 329 328 328 328 328 329 329 329 329 329 328 328 328 327 328 328 327 327 327 329 329 328 330 328 329 328 328 327 326
332 330 330 329 328 327 326 327 329 331 331 331 331 332 332 332 331 331 330 330 331 330 328 329 329 328 327 328 327 329 327 327 328
330 329 328 329 330 328 328 329 330 331 331 332 333 333 331 330 330 330 331 332 332 331 331 330 329 329 328 327 326 328 326 325 326
330 330 330 331 332 332 331 331 333 334 334 332 331 330 331 330 330 329 331 331 332 332 331 330 329 327 328 326 325 324 322 321 321
333 332 331 331 334 334 334 332 333 334 334 333 332 331 330 330 328 327 327 328 329 331 331 329 328 327 326 323 322 320 318 318 319
335 334 334 335 336 335 335 335 334 334 334 333 330 328 327 326 326 326 326 326 328 330 329 328 327 323 321 320 318 317 316 314 316
336 336 336 336 336 335 334 334 334 332 330 330 329 324 325 326 325 325 325 326 326 325 324 323 321 320 319 317 317 316 315 314 314
336 336 336 337 336 335 333 332 331 330 330 328 328 326 322 321 324 324 323 322 321 320 320 320 319 318 317 315 314 313 313 312 312
334 333 335 336 335 333 332 330 330 330 329 328 327 326 326 324 322 322 321 321 319 319 318 317 316 315 314 313 312 310 310 311 309
333 333 333 332 331 332 331 329 326 325 323 322 323 323 322 322 321 318 318 319 317 315 316 314 313 312 311 310 309 308 308 309 309

GFSFLT1_925_thetae_096.txt.gz
Theta_e
336 335 335 334 335 336 334 333 334 334 334 333 332 331 327 321 320 320 322 325 328 330 331 331 333 333 333 332 330 329 329 328 327
336 334 333 334 335 334 333 332 333 334 333 333 333 332 329 327 323 322 322 326 327 326 325 329 329 326 327 329 329 329 328 327 326
335 333 334 335 333 330 332 332 333 334 333 332 333 332 328 328 327 326 324 324 326 323 318 316 318 315 313 314 317 324 325 325 324
335 336 337 337 336 331 331 332 333 334 333 329 330 330 328 329 329 328 327 326 326 323 321 320 319 316 314 313 313 320 322 322 323
335 334 334 331 329 329 330 331 332 333 332 329 328 329 330 330 330 329 328 328 327 323 323 323 322 320 318 317 317 317 320 319 320
329 327 326 325 325 324 324 325 327 328 327 324 323 325 329 328 327 329 329 329 330 326 324 324 324 323 322 321 318 317 316 315 314
323 324 323 322 321 321 321 321 321 321 322 324 323 327 326 325 324 327 328 328 331 329 326 325 325 325 325 324 323 322 321 317 315
326 326 325 325 325 325 324 323 320 321 326 326 326 325 325 324 324 324 325 326 327 333 330 327 326 326 327 327 326 325 324 321 317
331 331 330 329 328 327 329 329 329 328 329 329 328 327 326 325 325 324 324 324 325 326 330 330 328 328 330 329 329 328 327 325 322
333 333 330 329 328 328 330 330 330 329 329 329 328 328 327 326 325 325 326 326 326 326 326 328 329 329 328 328 328 328 327 327 327
335 334 332 329 329 330 329 329 328 329 329 329 330 330 330 330 330 330 330 328 329 330 328 327 329 329 328 328 328 328 327 327 327
336 333 331 330 330 328 328 327 327 329 331 331 331 331 332 331 330 329 329 330 331 330 331 329 330 328 328 326 326 325 325 324 325
334 333 330 329 329 328 327 327 328 330 330 331 332 332 330 329 329 329 329 330 329 331 330 330 330 329 328 326 327 326 322 321 321
333 332 329 328 329 330 329 329 330 333 333 331 330 329 329 329 330 330 329 327 327 329 330 330 329 329 328 327 325 323 320 316 316
332 331 329 329 331 332 333 333 332 331 330 330 332 332 329 327 326 326 326 326 326 328 329 330 328 327 327 324 321 319 317 316 315
333 332 330 331 331 333 334 333 333 333 333 333 330 328 327 326 325 325 325 325 325 327 329 328 326 326 323 320 317 317 315 315 314
335 335 332 333 334 335 334 334 332 331 330 329 328 322 323 324 325 324 324 324 326 326 326 325 323 321 320 318 316 315 313 313 314
335 335 334 334 335 334 334 333 331 331 330 328 328 325 321 320 323 322 321 321 323 323 322 321 319 318 317 316 314 313 312 311 314
335 334 334 333 329 331 332 332 331 330 329 329 329 327 326 324 322 320 320 318 319 318 318 318 317 317 316 313 312 311 310 310 311
333 332 332 330 331 332 329 329 328 328 325 323 322 322 323 323 321 317 316 317 317 316 316 316 314 313 313 311 311 310 309 313 311

GFSFLT1_925_thetae_099.txt.gz
Theta_e
336 336 335 336 337 337 336 336 336 334 333 332 329 325 321 321 321 322 325 328 330 325 327 332 332 332 331 331 330 329 328 327 326
336 336 334 336 336 335 336 335 334 334 334 332 331 328 326 324 323 323 327 328 328 326 319 317 317 316 322 325 327 327 326 325 325
336 335 335 337 335 335 335 335 335 332 332 333 331 328 328 327 327 326 328 327 328 325 320 319 319 316 317 319 320 322 323 324 324
334 334 335 336 336 335 334 334 334 332 330 332 331 328 328 329 328 328 328 328 328 324 322 321 320 318 317 317 317 317 320 322 324
335 334 336 337 337 332 331 333 333 333 331 328 328 329 329 329 329 328 328 329 328 324 323 323 323 322 321 319 318 317 318 320 322
333 332 331 328 328 328 330 331 332 331 330 326 324 326 328 326 327 329 328 329 330 326 324 324 324 324 324 323 322 322 320 317 318
329 328 326 325 324 324 324 324 324 323 322 323 322 325 326 324 323 326 327 328 331 330 327 326 325 325 326 325 325 324 323 320 317
325 324 323 322 321 321 320 320 319 320 325 326 326 325 324 324 324 323 324 325 327 334 332 328 328 328 328 328 327 327 326 324 321
325 325 325 325 326 326 326 326 325 325 328 328 327 327 326 325 325 324 324 324 325 326 330 331 331 332 330 328 328 327 327 327 326
330 330 329 329 328 327 328 329 330 330 329 328 328 328 327 326 326 327 326 327 327 328 327 328 331 330 329 328 328 326 327 327 327
332 333 332 329 327 329 329 330 329 329 328 329 329 330 330 330 331 330 329 330 329 329 329 329 328 329 329 328 326 325 325 324 325
335 334 332 330 329 328 328 328 327 327 330 331 331 331 331 330 329 328 328 328 328 329 329 330 328 329 328 327 325 325 324 322 322
335 335 332 330 330 329 328 327 326 328 330 330 332 331 330 328 328 328 329 329 328 327 328 330 329 329 328 328 326 323 321 319 317
334 333 332 330 329 328 328 327 328 331 332 331 329 329 329 329 329 327 326 326 326 326 327 330 330 329 328 325 325 321 318 317 316
333 333 332 331 328 328 330 330 331 331 331 330 331 331 330 327 327 326 325 325 325 326 327 329 329 327 327 325 321 318 318 317 315
333 333 332 330 328 330 332 333 332 332 332 331 330 328 327 325 324 324 324 324 324 325 327 328 327 326 325 321 319 317 316 316 316
334 333 332 330 329 330 332 333 333 331 332 330 328 329 326 323 323 323 324 323 324 325 326 326 325 323 321 319 317 315 313 313 316
333 332 331 331 331 331 333 334 332 331 330 329 328 328 327 324 322 321 321 321 321 322 324 323 321 319 318 316 315 314 312 312 313
333 332 331 331 331 332 331 330 332 331 329 328 328 328 326 326 325 320 319 318 318 319 319 318 317 317 316 315 313 313 313 315 311
333 332 332 332 331 328 329 329 329 329 328 326 324 323 323 323 324 322 320 317 317 317 316 316 316 315 314 312 311 311 310 314 311

GFSFLT1_925_thetae_102.txt.gz
Theta_e
337 336 336 337 336 336 336 336 334 335 333 328 322 321 323 327 328 328 328 328 330 332 331 329 329 328 329 330 329 328 327 326 327
337 335 336 336 336 336 336 335 334 335 333 330 327 325 327 328 328 329 329 329 329 327 320 318 318 321 325 326 327 327 326 326 326
336 335 335 335 335 335 335 335 333 332 334 331 327 327 328 330 330 330 329 328 329 327 323 321 321 320 324 325 325 325 325 325 325
336 335 336 335 335 335 335 335 333 331 333 331 329 328 329 331 331 330 330 328 329 325 324 323 322 320 319 319 319 323 324 323 324
335 334 336 336 335 335 334 334 333 331 329 329 328 329 329 331 331 331 331 329 328 325 323 324 324 323 322 321 321 321 321 319 321
334 335 335 336 334 332 333 333 333 332 330 327 326 327 329 328 329 331 328 328 330 327 325 324 325 325 325 324 324 323 323 319 317
334 335 333 331 330 330 330 331 331 329 327 326 322 326 328 326 326 329 327 328 332 331 329 328 327 326 327 327 326 326 325 323 320
332 332 331 330 326 328 328 327 327 326 326 328 328 328 327 326 326 325 324 325 326 333 334 331 330 329 329 328 327 327 327 326 324
330 330 330 329 327 328 328 328 327 326 329 330 330 329 328 328 327 326 325 325 325 326 328 331 333 331 329 328 328 327 327 327 326
329 329 330 330 331 331 330 331 331 330 331 331 331 331 330 329 329 329 328 328 328 329 329 328 329 329 329 329 327 326 326 325 326
332 332 332 332 332 330 330 331 331 331 331 330 330 330 330 330 331 330 330 329 329 330 328 329 328 330 328 329 326 324 324 323 322
334 334 334 332 331 331 332 331 330 330 331 331 332 332 332 332 331 330 329 328 328 328 329 328 328 329 328 328 325 325 324 321 320
335 336 334 333 332 331 330 330 329 329 331 332 332 332 332 330 330 330 330 331 331 331 329 326 328 329 329 329 326 323 319 317 316
337 336 336 334 332 332 331 330 329 330 333 333 331 330 331 331 331 330 330 329 328 328 329 327 329 329 328 329 326 320 318 317 315
337 336 336 334 332 331 330 329 330 333 333 332 331 332 332 331 330 328 327 326 327 328 329 330 329 328 328 326 325 322 319 316 315
336 337 336 335 332 330 330 331 332 332 332 333 332 331 330 328 327 325 326 326 326 327 329 330 328 326 327 324 322 319 316 315 314
334 335 334 334 333 331 332 332 334 334 333 331 331 329 327 326 325 325 324 324 324 325 325 325 324 323 321 320 318 316 315 313 314
334 334 333 333 332 332 333 334 334 332 333 332 330 330 327 326 325 324 323 322 322 321 320 320 318 317 316 316 315 314 313 314 315
332 332 332 331 330 332 333 332 331 330 330 330 329 330 330 327 325 324 322 320 320 319 318 317 316 317 316 315 313 312 313 315 314
332 333 332 331 330 327 324 326 327 328 328 328 328 327 325 325 324 323 321 320 318 317 317 315 314 313 312 312 312 312 312 317 317

GFSFLT1_925_thetae_105.txt.gz
Theta_e
337 337 337 335 335 335 336 334 335 333 325 320 319 324 328 329 329 329 329 329 331 332 328 329 329 329 328 328 328 327 326 327 327
335 337 337 335 336 335 335 335 334 332 328 325 323 327 328 329 330 330 330 330 330 329 328 326 327 327 327 327 327 326 326 326 326
335 336 335 335 334 336 336 333 333 335 330 327 327 327 330 331 331 331 330 328 330 329 326 325 324 324 327 327 327 325 325 326 325
335 335 335 335 335 336 335 333 332 334 331 328 327 328 331 331 331 331 331 328 330 326 325 326 325 323 321 321 322 322 324 325 324
334 335 335 336 335 335 335 333 331 331 332 329 328 328 330 332 332 332 328 328 327 324 324 325 325 324 324 324 324 323 320 319 320
334 336 335 335 335 335 335 334 332 330 329 328 327 327 330 328 330 332 327 327 329 327 326 325 325 325 326 326 325 325 324 321 319
334 333 334 335 335 334 334 333 332 331 330 326 321 326 328 327 327 331 327 326 329 331 329 329 328 327 327 327 326 326 326 325 323
335 334 334 333 331 332 331 330 329 328 327 327 328 328 328 327 327 326 324 325 326 331 335 333 331 330 329 328 328 326 326 326 326
333 332 331 330 328 329 329 328 327 326 327 329 329 329 328 328 328 327 325 325 326 327 328 330 333 331 329 327 327 326 325 325 325
331 330 330 329 328 329 329 329 329 327 328 331 331 331 331 330 329 329 329 328 328 329 330 329 329 329 329 328 327 325 324 324 328
329 329 329 330 332 331 330 330 331 331 331 331 330 330 331 330 331 331 331 329 328 328 329 328 328 328 328 328 327 325 323 323 320
332 332 332 332 332 330 330 330 331 331 331 332 331 332 332 332 332 331 330 330 329 328 328 328 327 328 328 328 327 325 323 319 317
334 334 335 333 331 331 331 331 331 329 330 332 332 332 332 332 331 330 330 330 330 329 330 330 327 327 329 328 327 325 320 316 316
335 336 335 334 333 332 331 331 330 329 331 332 333 332 331 331 330 330 329 329 328 328 328 328 328 328 329 329 327 322 318 317 316
337 337 336 335 334 333 332 331 330 331 332 332 331 331 331 331 331 330 328 326 327 328 329 330 329 328 328 329 327 323 319 317 316
337 336 336 336 335 333 331 331 331 332 333 332 332 330 330 330 329 327 326 327 327 328 329 329 327 327 328 326 324 321 317 316 315
336 337 337 336 335 334 332 331 332 333 333 333 332 330 328 328 325 325 325 325 325 325 326 326 325 324 323 324 320 317 315 315 315
335 335 335 335 334 334 333 332 332 334 333 333 330 331 331 326 327 326 325 324 324 323 322 322 321 320 318 316 315 314 314 315 319
335 333 332 331 330 332 332 333 333 334 332 330 329 329 329 330 325 325 324 322 322 322 321 320 318 316 316 316 315 314 314 317 315
330 330 331 330 329 330 331 331 330 329 327 326 325 319 320 325 326 324 323 322 321 320 320 319 317 315 314 314 314 312 313 317 319

GFSFLT1_925_thetae_108.txt.gz
Theta_e
337 341 336 336 333 329 334 335 324 319 318 317 326 328 329 329 328 328 329 327 331 329 327 327 327 327 328 328 327 327 327 327 328
337 338 335 333 333 335 336 335 328 323 321 321 326 328 329 330 330 329 324 329 330 329 328 328 327 326 327 327 326 326 327 326 326
338 337 334 335 335 335 336 335 331 328 326 325 327 330 330 330 330 329 323 328 330 329 326 324 322 325 324 325 323 323 325 325 326
336 335 334 335 334 337 333 333 336 330 327 325 327 330 331 331 331 331 324 326 329 325 325 325 324 324 323 323 323 322 322 323 324
335 334 334 335 334 335 333 331 333 334 329 327 327 330 331 331 331 332 325 326 326 324 324 325 325 325 325 325 325 324 321 320 319
334 333 334 334 334 335 334 332 330 329 328 326 326 329 330 330 331 331 326 326 326 326 326 325 326 326 326 326 325 325 325 323 321
333 333 334 334 334 335 334 332 331 330 328 325 320 328 328 327 327 331 328 325 328 329 329 329 328 328 327 327 326 326 326 326 325
335 333 333 333 334 334 333 331 331 327 330 328 328 327 328 327 326 326 324 324 326 330 333 332 331 330 329 327 326 326 325 325 325
335 332 333 333 332 330 329 328 326 327 326 327 329 328 327 327 327 327 325 325 326 327 328 331 332 330 329 328 327 326 324 324 324
334 332 330 330 327 330 328 330 327 327 326 328 330 330 330 329 328 328 328 329 329 329 329 328 329 330 329 327 327 325 324 324 322
332 331 330 330 328 328 329 329 330 329 328 330 331 330 331 330 330 331 330 329 328 327 328 327 327 328 328 328 327 324 322 321 318
330 329 329 329 331 331 331 330 331 331 331 331 331 330 331 331 330 331 330 329 329 329 329 328 327 326 328 328 328 325 323 318 316
328 330 331 332 332 331 330 330 331 330 330 331 331 332 332 332 331 330 329 329 329 329 329 329 329 327 326 331 328 325 321 317 315
333 333 333 333 331 331 331 331 331 330 329 331 331 332 332 331 330 329 329 328 327 327 327 327 329 327 328 331 329 324 318 317 316
334 334 335 334 333 332 331 331 330 330 329 331 332 331 330 329 330 330 329 327 326 326 329 329 328 327 328 330 327 323 320 317 316
335 336 336 335 334 333 332 332 331 330 330 332 330 330 329 331 329 328 326 326 325 327 329 326 326 327 329 327 325 323 319 317 317
337 335 336 336 335 334 333 331 331 331 331 333 331 328 329 328 327 325 325 325 325 325 326 327 324 324 325 325 324 320 316 316 318
336 336 336 336 335 335 334 333 332 332 333 332 331 327 325 325 325 325 325 324 324 323 323 324 323 322 322 322 318 316 315 315 319
335 335 335 334 332 332 331 331 331 331 332 330 329 328 329 325 323 325 325 323 323 322 321 320 319 318 318 317 315 314 314 318 317
331 331 330 331 330 329 327 328 326 328 330 330 327 326 326 322 325 324 322 323 321 321 320 319 317 316 314 314 314 313 313 318 319

GFSFLT1_925_thetae_111.txt.gz
Theta_e
343 335 338 336 329 335 335 328 321 319 317 326 328 328 329 327 328 329 325 328 330 328 328 328 329 329 329 328 328 328 328 328 328
341 337 337 334 328 334 335 326 320 318 321 327 328 329 330 329 329 321 322 329 330 329 329 329 329 328 328 327 327 328 327 327 327
340 336 335 330 333 334 335 333 324 322 323 328 329 329 330 330 329 321 323 329 331 330 328 327 326 325 325 326 324 325 326 326 326
338 335 332 333 334 335 334 333 328 325 325 326 330 331 331 330 331 326 322 327 330 329 326 325 325 324 325 325 324 322 321 321 324
335 333 333 334 335 332 332 334 334 327 325 326 330 331 331 331 331 331 324 325 328 325 325 325 325 325 325 324 324 324 323 322 321
334 333 334 334 335 332 331 330 333 329 326 325 327 330 330 331 331 331 325 325 326 326 326 326 326 326 326 325 325 325 325 324 323
333 333 334 333 333 334 332 330 329 328 326 323 323 328 327 327 329 331 329 325 328 328 329 329 328 328 328 327 325 324 325 325 324
333 332 333 333 333 334 333 331 330 329 329 327 325 327 327 326 326 325 324 324 326 330 332 330 330 329 329 327 326 325 324 323 323
331 332 332 333 333 333 333 330 329 326 327 327 327 328 327 327 326 326 326 325 326 327 329 330 330 330 329 328 327 326 325 324 323
332 333 332 333 333 333 329 327 326 327 326 326 328 329 329 328 328 328 328 329 328 329 329 328 329 330 327 328 327 325 325 323 319
334 331 332 332 329 328 328 328 329 327 326 328 329 330 330 329 329 329 329 329 329 327 327 328 327 327 327 328 327 325 323 321 316
333 331 330 329 327 328 329 328 329 329 328 328 331 330 330 330 329 330 330 329 329 328 327 329 328 328 327 329 329 325 323 320 316
332 330 330 330 329 329 330 330 330 330 330 331 331 331 330 331 331 330 330 329 328 328 328 328 328 328 327 329 331 326 324 318 316
331 329 329 329 331 331 330 329 330 330 330 330 331 331 331 331 331 329 329 328 327 326 326 326 328 328 326 331 331 326 322 317 316
328 328 329 331 332 330 329 330 331 330 329 329 330 331 331 330 330 329 329 327 326 325 325 328 328 326 328 330 329 325 320 318 316
332 331 333 333 332 331 331 331 330 330 330 330 330 331 330 329 330 329 328 327 325 322 327 328 325 325 329 328 326 324 322 319 317
334 334 334 335 333 333 332 332 331 331 330 330 330 329 328 329 328 328 327 325 325 324 326 327 324 323 324 326 325 323 319 316 317
337 334 336 336 334 333 333 332 331 331 331 331 330 327 325 324 324 325 324 325 324 324 323 325 323 322 321 321 322 320 316 315 318
336 336 336 336 335 335 334 333 332 332 331 331 331 330 328 323 325 325 325 323 323 323 322 321 321 320 320 320 319 317 315 317 318
333 334 332 331 331 330 330 330 330 330 330 329 328 328 329 326 323 323 322 323 322 322 321 320 319 318 316 316 316 315 314 318 319

GFSFLT1_925_thetae_114.txt.gz
Theta_e
344 336 338 334 333 335 334 329 327 326 326 328 328 328 332 332 330 326 327 327 330 330 330 330 330 330 329 329 329 328 328 328 328
339 336 338 332 329 334 323 321 320 320 327 329 329 328 329 328 323 319 324 330 331 331 330 330 330 330 328 329 329 328 328 328 327
337 335 335 328 330 334 320 319 318 324 327 328 329 329 329 329 321 321 324 330 332 330 326 325 326 325 325 327 327 327 327 327 327
336 336 333 326 330 330 326 323 321 323 327 329 330 330 329 330 326 321 324 328 331 328 326 326 325 325 325 324 324 323 325 325 326
337 334 330 335 335 333 329 327 324 324 326 329 330 330 330 330 330 326 323 326 327 325 325 326 325 325 324 324 325 324 324 323 322
335 333 332 334 334 333 331 333 327 324 325 327 330 330 330 330 330 328 324 324 326 326 326 326 326 326 326 325 324 324 325 324 324
334 332 333 333 334 330 330 331 330 327 324 324 328 329 328 330 331 330 328 324 325 327 328 328 328 328 327 326 325 324 324 323 322
334 332 333 333 334 333 331 329 328 326 325 321 323 327 327 326 327 327 325 323 325 328 329 330 330 329 329 327 326 325 324 322 322
333 332 332 333 333 334 333 330 329 328 328 327 327 327 327 326 326 326 326 324 325 327 328 329 329 329 328 328 327 326 325 324 322
333 331 332 332 333 334 333 331 329 327 326 326 327 328 327 326 327 326 327 329 328 328 329 328 328 328 328 328 328 326 324 323 319
332 331 331 332 332 332 332 329 326 326 326 325 326 328 328 328 328 327 328 329 328 328 327 327 327 327 327 327 328 326 324 322 316
331 331 332 332 332 332 330 327 328 328 327 326 327 329 330 330 329 329 328 328 328 328 327 327 328 328 328 328 330 327 324 321 316
331 332 332 330 331 329 329 329 328 329 328 328 329 330 330 330 330 329 328 328 328 327 327 328 328 328 327 327 331 329 325 319 316
332 333 332 330 329 327 328 328 329 329 330 330 330 330 330 330 331 330 330 329 329 327 327 326 326 327 327 326 331 328 324 318 316
332 332 329 329 329 329 329 330 330 329 330 330 329 330 331 331 331 329 328 328 327 327 325 326 327 325 326 329 330 326 322 318 317
333 332 330 329 329 330 331 330 329 330 330 329 328 330 330 330 330 329 328 327 327 325 324 326 325 324 327 328 327 325 323 321 319
330 329 329 328 330 331 330 329 330 330 330 329 330 328 329 328 328 328 327 326 325 324 323 325 325 322 325 325 325 324 323 321 319
329 328 328 330 331 332 331 330 330 330 330 329 330 327 327 324 324 325 325 325 324 323 322 323 324 322 321 322 322 321 321 317 320
331 332 332 333 333 333 332 331 331 331 330 330 331 330 326 323 325 324 323 324 324 323 323 323 323 322 321 320 320 319 316 317 320
335 335 334 333 336 335 332 332 330 330 330 330 328 327 328 327 323 323 322 321 323 323 323 321 320 319 319 318 318 316 315 317 319

GFSFLT1_925_thetae_117.txt.gz
Theta_e
339 336 335 335 335 335 334 335 331 327 330 329 335 335 334 333 329 328 324 327 331 331 331 331 331 331 330 330 329 329 328 328 328
337 333 334 334 334 334 333 331 327 326 329 328 328 330 328 326 321 321 325 330 332 332 331 331 331 330 330 330 329 329 328 328 328
337 335 335 333 331 329 327 324 323 327 328 329 328 328 328 322 320 323 326 331 332 331 329 328 329 330 330 329 329 328 328 328 328
338 335 335 326 334 324 320 317 320 327 328 329 329 329 329 324 321 322 325 330 332 328 326 326 326 326 325 326 327 326 324 326 326
337 334 333 325 330 325 321 319 321 326 328 329 330 329 329 329 327 322 323 326 330 326 326 326 325 325 324 324 325 324 324 324 323
336 335 331 327 332 328 325 323 323 324 327 329 330 330 329 330 329 326 324 326 327 325 326 326 326 326 325 324 324 324 324 323 322
337 334 330 334 334 332 329 327 324 324 325 328 329 329 329 330 330 329 327 325 327 327 327 327 327 327 326 326 325 323 322 321 321
336 333 332 335 334 333 330 330 329 325 324 325 328 328 326 326 327 328 327 324 328 328 328 329 329 328 328 328 326 325 323 322 322
336 332 333 331 334 332 330 329 328 326 324 322 321 326 326 326 326 326 325 324 325 331 329 329 329 328 328 328 327 326 325 324 322
336 332 331 332 334 333 331 330 328 327 326 327 325 326 327 326 326 326 326 327 327 327 328 329 329 327 327 327 327 327 325 324 320
335 332 332 332 332 332 333 332 330 328 327 326 326 327 327 327 326 327 327 328 329 328 326 327 327 327 327 327 328 327 325 323 318
334 333 332 332 332 332 333 333 331 328 326 326 325 326 327 328 328 328 327 328 328 328 327 327 327 328 328 328 329 328 326 323 317
333 332 331 331 332 332 332 332 331 327 326 327 326 326 328 329 329 329 328 327 327 328 327 327 327 328 327 327 328 329 327 323 317
332 331 331 331 331 332 332 332 328 327 328 328 328 328 329 330 329 330 329 328 328 328 327 327 327 325 325 325 328 330 326 322 317
331 331 331 331 331 331 331 330 329 328 328 329 329 330 330 330 330 330 330 329 329 328 326 326 324 324 322 325 330 328 325 321 319
331 331 331 331 331 330 329 328 328 327 328 329 328 328 328 329 330 330 329 329 328 326 326 324 322 323 321 328 329 327 324 322 320
331 331 331 331 331 330 328 328 328 328 328 328 328 327 328 329 329 329 327 327 327 326 324 322 323 323 323 327 326 324 323 322 321
329 331 331 331 329 328 329 328 329 329 329 328 329 325 327 324 326 326 326 326 326 325 323 322 322 323 322 325 324 322 322 321 320
331 330 331 332 330 329 328 330 330 329 329 328 329 328 325 323 324 323 323 324 325 324 323 321 321 323 321 321 321 320 319 318 319
330 330 331 329 329 328 329 331 330 329 329 329 329 328 327 326 321 321 321 322 324 323 323 322 322 322 321 320 320 319 318 316 318